Time,TemperatureF,DewpointF,PressureIn,WindDirection,WindDirectionDegrees,WindSpeedMPH,WindSpeedGustMPH,Humidity,HourlyPrecipIn,Conditions,Clouds,dailyrainin,SolarRadiationWatts/m^2,SoftwareType,DateUTC
2013-09-27 00:00:00,67.8,52.0,29.87,SE,143,5.0,7.0,57,0.00,,,0.00,0,Wunderground v.1.15,2013-09-27 05:00:00,
2013-09-27 00:02:00,67.8,52.0,29.87,SE,131,9.0,9.0,57,0.00,,,0.00,0,Wunderground v.1.15,2013-09-27 05:02:00,
2013-09-27 00:03:00,67.7,51.9,29.87,SE,146,4.0,9.0,57,0.00,,,0.00,0,Wunderground v.1.15,2013-09-27 05:03:00,
2013-09-27 00:04:00,67.7,51.9,29.87,SE,125,6.0,9.0,57,0.00,,,0.00,0,Wunderground v.1.15,2013-09-27 05:04:00,
2013-09-27 00:07:00,67.6,51.8,29.87,SE,140,4.0,15.0,57,0.00,,,0.00,0,Wunderground v.1.15,2013-09-27 05:07:00,
2013-09-27 00:08:00,67.6,51.8,29.87,SE,145,2.0,15.0,57,0.00,,,0.00,0,Wunderground v.1.15,2013-09-27 05:08:00,
2013-09-27 00:10:00,67.5,52.2,29.87,SSE,158,7.0,15.0,58,0.00,,,0.00,0,Wunderground v.1.15,2013-09-27 05:10:00,
2013-09-27 00:12:00,67.5,52.2,29.87,SSE,147,7.0,15.0,58,0.00,,,0.00,0,Wunderground v.1.15,2013-09-27 05:12:00,
2013-09-27 00:13:00,67.5,52.2,29.87,SE,145,10.0,15.0,58,0.00,,,0.00,0,Wunderground v.1.15,2013-09-27 05:13:00,
2013-09-27 00:16:00,67.4,52.1,29.87,SE,146,10.0,15.0,58,0.00,,,0.00,0,Wunderground v.1.15,2013-09-27 05:16:00,
2013-09-27 00:18:00,67.4,52.1,29.87,SE,145,8.0,15.0,58,0.00,,,0.00,0,Wunderground v.1.15,2013-09-27 05:18:00,
2013-09-27 00:20:00,67.3,52.0,29.86,SE,136,6.0,15.0,58,0.00,,,0.00,0,Wunderground v.1.15,2013-09-27 05:20:00,
2013-09-27 00:23:00,67.2,51.9,29.87,SE,130,2.0,15.0,58,0.00,,,0.00,0,Wunderground v.1.15,2013-09-27 05:23:00,
2013-09-27 00:25:00,67.2,51.9,29.87,SE,136,3.0,15.0,58,0.00,,,0.00,0,Wunderground v.1.15,2013-09-27 05:25:00,
2013-09-27 00:27:00,67.1,52.3,29.87,SE,138,4.0,15.0,59,0.00,,,0.00,0,Wunderground v.1.15,2013-09-27 05:27:00,
2013-09-27 00:29:00,67.0,52.2,29.87,SE,127,7.0,15.0,59,0.00,,,0.00,0,Wunderground v.1.15,2013-09-27 05:29:00,
2013-09-27 00:32:00,67.0,52.2,29.88,SE,146,5.0,15.0,59,0.00,,,0.00,0,Wunderground v.1.15,2013-09-27 05:32:00,
2013-09-27 00:33:00,67.0,52.2,29.87,SE,137,10.0,15.0,59,0.00,,,0.00,0,Wunderground v.1.15,2013-09-27 05:33:00,
2013-09-27 00:34:00,66.9,52.1,29.87,SSE,151,4.0,15.0,59,0.00,,,0.00,0,Wunderground v.1.15,2013-09-27 05:34:00,
2013-09-27 00:37:00,66.9,52.1,29.87,SE,140,7.0,15.0,59,0.00,,,0.00,0,Wunderground v.1.15,2013-09-27 05:37:00,
2013-09-27 00:38:00,66.8,52.0,29.87,SE,125,7.0,15.0,59,0.00,,,0.00,0,Wunderground v.1.15,2013-09-27 05:38:00,
2013-09-27 00:41:00,66.9,52.1,29.87,ESE,109,4.0,15.0,59,0.00,,,0.00,0,Wunderground v.1.15,2013-09-27 05:41:00,
2013-09-27 00:42:00,66.9,52.6,29.87,SE,141,12.0,15.0,60,0.00,,,0.00,0,Wunderground v.1.15,2013-09-27 05:42:00,
2013-09-27 00:43:00,66.9,52.6,29.87,SE,125,5.0,15.0,60,0.00,,,0.00,0,Wunderground v.1.15,2013-09-27 05:43:00,
2013-09-27 00:45:00,66.8,52.0,29.87,SE,143,5.0,15.0,59,0.00,,,0.00,0,Wunderground v.1.15,2013-09-27 05:45:00,
2013-09-27 00:47:00,66.8,52.5,29.87,SE,142,6.0,15.0,60,0.00,,,0.00,0,Wunderground v.1.15,2013-09-27 05:47:00,
2013-09-27 00:48:00,66.8,52.5,29.87,SE,143,12.0,15.0,60,0.00,,,0.00,0,Wunderground v.1.15,2013-09-27 05:48:00,
2013-09-27 00:49:00,66.8,52.5,29.87,SE,138,4.0,15.0,60,0.00,,,0.00,0,Wunderground v.1.15,2013-09-27 05:49:00,
2013-09-27 00:51:00,66.8,52.5,29.87,ESE,123,2.0,15.0,60,0.00,,,0.00,0,Wunderground v.1.15,2013-09-27 05:51:00,
2013-09-27 00:53:00,66.7,52.4,29.87,SE,131,6.0,15.0,60,0.00,,,0.00,0,Wunderground v.1.15,2013-09-27 05:53:00,
2013-09-27 00:54:00,66.7,52.4,29.87,SE,134,3.0,15.0,60,0.00,,,0.00,0,Wunderground v.1.15,2013-09-27 05:54:00,
2013-09-27 00:58:00,66.6,52.3,29.87,SSE,152,7.0,15.0,60,0.00,,,0.00,0,Wunderground v.1.15,2013-09-27 05:58:00,
2013-09-27 00:59:00,66.6,52.3,29.87,SE,135,3.0,15.0,60,0.00,,,0.00,0,Wunderground v.1.15,2013-09-27 05:59:00,
2013-09-27 01:00:00,66.5,52.2,29.87,SE,144,6.0,15.0,60,0.00,,,0.00,0,Wunderground v.1.15,2013-09-27 06:00:00,
2013-09-27 01:03:00,66.5,52.2,29.87,SSE,149,8.0,15.0,60,0.00,,,0.00,0,Wunderground v.1.15,2013-09-27 06:03:00,
2013-09-27 01:06:00,66.5,52.2,29.87,SE,141,5.0,15.0,60,0.00,,,0.00,0,Wunderground v.1.15,2013-09-27 06:06:00,
2013-09-27 01:10:00,66.5,52.2,29.86,SE,134,3.0,15.0,60,0.00,,,0.00,0,Wunderground v.1.15,2013-09-27 06:10:00,
2013-09-27 01:11:00,66.5,52.6,29.87,SE,141,4.0,15.0,61,0.00,,,0.00,0,Wunderground v.1.15,2013-09-27 06:11:00,
2013-09-27 01:12:00,66.5,52.2,29.86,SSE,155,4.0,15.0,60,0.00,,,0.00,0,Wunderground v.1.15,2013-09-27 06:12:00,
2013-09-27 01:13:00,66.5,52.6,29.87,ESE,122,6.0,15.0,61,0.00,,,0.00,0,Wunderground v.1.15,2013-09-27 06:13:00,
2013-09-27 01:16:00,66.5,52.6,29.87,SE,146,5.0,15.0,61,0.00,,,0.00,0,Wunderground v.1.15,2013-09-27 06:16:00,
2013-09-27 01:18:00,66.5,52.6,29.87,SE,128,3.0,15.0,61,0.00,,,0.00,0,Wunderground v.1.15,2013-09-27 06:18:00,
2013-09-27 01:20:00,66.5,52.6,29.87,SSE,154,4.0,15.0,61,0.00,,,0.00,0,Wunderground v.1.15,2013-09-27 06:20:00,
2013-09-27 01:24:00,66.4,52.5,29.87,SE,134,11.0,15.0,61,0.00,,,0.00,0,Wunderground v.1.15,2013-09-27 06:24:00,
2013-09-27 01:25:00,66.4,52.5,29.87,SE,135,4.0,15.0,61,0.00,,,0.00,0,Wunderground v.1.15,2013-09-27 06:25:00,
2013-09-27 01:27:00,66.4,52.5,29.87,SE,136,5.0,15.0,61,0.00,,,0.00,0,Wunderground v.1.15,2013-09-27 06:27:00,
2013-09-27 01:29:00,66.4,52.5,29.87,East,100,2.0,15.0,61,0.00,,,0.00,0,Wunderground v.1.15,2013-09-27 06:29:00,
2013-09-27 01:30:00,66.5,52.2,29.86,SSE,164,7.0,15.0,60,0.00,,,0.00,0,Wunderground v.1.15,2013-09-27 06:30:00,
2013-09-27 01:32:00,66.4,52.1,29.87,ESE,123,4.0,15.0,60,0.00,,,0.00,0,Wunderground v.1.15,2013-09-27 06:32:00,
2013-09-27 01:34:00,66.5,52.6,29.87,SSE,153,6.0,15.0,61,0.00,,,0.00,0,Wunderground v.1.15,2013-09-27 06:34:00,
2013-09-27 01:37:00,66.4,52.1,29.87,SE,136,7.0,15.0,60,0.00,,,0.00,0,Wunderground v.1.15,2013-09-27 06:37:00,
2013-09-27 01:39:00,66.4,52.5,29.87,SSE,149,6.0,15.0,61,0.00,,,0.00,0,Wunderground v.1.15,2013-09-27 06:39:00,
2013-09-27 01:40:00,66.4,52.5,29.87,SE,134,5.0,15.0,61,0.00,,,0.00,0,Wunderground v.1.15,2013-09-27 06:40:00,
2013-09-27 01:42:00,66.4,52.5,29.87,SSE,156,5.0,15.0,61,0.00,,,0.00,0,Wunderground v.1.15,2013-09-27 06:42:00,
2013-09-27 01:45:00,66.4,52.5,29.86,SE,132,5.0,15.0,61,0.00,,,0.00,0,Wunderground v.1.15,2013-09-27 06:45:00,
2013-09-27 01:47:00,66.5,52.6,29.87,SSE,148,6.0,15.0,61,0.00,,,0.00,0,Wunderground v.1.15,2013-09-27 06:47:00,
2013-09-27 01:48:00,66.5,52.6,29.87,SE,132,6.0,15.0,61,0.00,,,0.00,0,Wunderground v.1.15,2013-09-27 06:48:00,
2013-09-27 01:49:00,66.5,52.6,29.87,SSE,152,9.0,15.0,61,0.00,,,0.00,0,Wunderground v.1.15,2013-09-27 06:49:00,
2013-09-27 01:51:00,66.6,52.3,29.87,SSE,151,8.0,15.0,60,0.00,,,0.00,0,Wunderground v.1.15,2013-09-27 06:51:00,
2013-09-27 01:54:00,66.8,52.5,29.87,SE,144,6.0,15.0,60,0.00,,,0.00,0,Wunderground v.1.15,2013-09-27 06:54:00,
2013-09-27 01:55:00,66.8,52.5,29.87,SE,137,8.0,15.0,60,0.00,,,0.00,0,Wunderground v.1.15,2013-09-27 06:55:00,
2013-09-27 01:56:00,66.8,52.5,29.86,SE,135,2.0,15.0,60,0.00,,,0.00,0,Wunderground v.1.15,2013-09-27 06:56:00,
2013-09-27 02:01:00,67.0,52.7,29.86,SE,135,4.0,15.0,60,0.00,,,0.00,0,Wunderground v.1.15,2013-09-27 07:01:00,
2013-09-27 02:04:00,67.0,52.2,29.87,SE,133,8.0,15.0,59,0.00,,,0.00,0,Wunderground v.1.15,2013-09-27 07:04:00,
2013-09-27 02:05:00,67.1,52.3,29.86,SE,140,4.0,15.0,59,0.00,,,0.00,0,Wunderground v.1.15,2013-09-27 07:05:00,
2013-09-27 02:06:00,67.1,52.3,29.86,SE,143,5.0,15.0,59,0.00,,,0.00,0,Wunderground v.1.15,2013-09-27 07:06:00,
2013-09-27 02:07:00,67.1,52.7,29.87,SSE,164,5.0,15.0,60,0.00,,,0.00,0,Wunderground v.1.15,2013-09-27 07:07:00,
2013-09-27 02:10:00,67.1,52.3,29.87,SSE,165,6.0,15.0,59,0.00,,,0.00,0,Wunderground v.1.15,2013-09-27 07:10:00,
2013-09-27 02:12:00,67.1,52.3,29.86,SE,142,6.0,15.0,59,0.00,,,0.00,0,Wunderground v.1.15,2013-09-27 07:12:00,
2013-09-27 02:14:00,67.1,52.3,29.87,SSE,151,5.0,15.0,59,0.00,,,0.00,0,Wunderground v.1.15,2013-09-27 07:14:00,
2013-09-27 02:18:00,67.1,52.3,29.87,SE,129,3.0,15.0,59,0.00,,,0.00,0,Wunderground v.1.15,2013-09-27 07:18:00,
2013-09-27 02:19:00,67.1,52.3,29.86,SE,140,5.0,15.0,59,0.00,,,0.00,0,Wunderground v.1.15,2013-09-27 07:19:00,
2013-09-27 02:20:00,67.1,52.3,29.86,SE,137,8.0,15.0,59,0.00,,,0.00,0,Wunderground v.1.15,2013-09-27 07:20:00,
2013-09-27 02:24:00,67.1,52.3,29.86,ESE,108,5.0,15.0,59,0.00,,,0.00,0,Wunderground v.1.15,2013-09-27 07:24:00,
2013-09-27 02:25:00,67.1,52.3,29.86,SE,141,6.0,15.0,59,0.00,,,0.00,0,Wunderground v.1.15,2013-09-27 07:25:00,
2013-09-27 02:28:00,67.1,52.3,29.86,SE,143,5.0,15.0,59,0.00,,,0.00,0,Wunderground v.1.15,2013-09-27 07:28:00,
2013-09-27 02:30:00,67.0,52.2,29.87,SE,138,8.0,15.0,59,0.00,,,0.00,0,Wunderground v.1.15,2013-09-27 07:30:00,
2013-09-27 02:32:00,67.0,52.2,29.86,SSE,149,9.0,15.0,59,0.00,,,0.00,0,Wunderground v.1.15,2013-09-27 07:32:00,
2013-09-27 02:34:00,67.0,52.2,29.86,SE,139,6.0,15.0,59,0.00,,,0.00,0,Wunderground v.1.15,2013-09-27 07:34:00,
2013-09-27 02:35:00,67.0,52.2,29.86,SE,127,5.0,15.0,59,0.00,,,0.00,0,Wunderground v.1.15,2013-09-27 07:35:00,
2013-09-27 02:36:00,67.0,52.7,29.86,SE,130,2.0,15.0,60,0.00,,,0.00,0,Wunderground v.1.15,2013-09-27 07:36:00,
2013-09-27 02:37:00,67.0,52.2,29.86,SE,146,5.0,15.0,59,0.00,,,0.00,0,Wunderground v.1.15,2013-09-27 07:37:00,
2013-09-27 02:40:00,66.9,52.6,29.86,SE,143,3.0,15.0,60,0.00,,,0.00,0,Wunderground v.1.15,2013-09-27 07:40:00,
2013-09-27 02:42:00,66.9,52.6,29.87,SE,140,11.0,15.0,60,0.00,,,0.00,0,Wunderground v.1.15,2013-09-27 07:42:00,
2013-09-27 02:43:00,67.0,52.7,29.86,SE,138,7.0,15.0,60,0.00,,,0.00,0,Wunderground v.1.15,2013-09-27 07:43:00,
2013-09-27 02:47:00,67.0,52.2,29.86,SE,142,10.0,15.0,59,0.00,,,0.00,0,Wunderground v.1.15,2013-09-27 07:47:00,
2013-09-27 02:48:00,67.0,52.7,29.86,ESE,123,4.0,15.0,60,0.00,,,0.00,0,Wunderground v.1.15,2013-09-27 07:48:00,
2013-09-27 02:49:00,67.0,52.2,29.86,ESE,111,5.0,15.0,59,0.00,,,0.00,0,Wunderground v.1.15,2013-09-27 07:49:00,
2013-09-27 02:50:00,67.0,52.2,29.86,SE,133,6.0,15.0,59,0.00,,,0.00,0,Wunderground v.1.15,2013-09-27 07:50:00,
2013-09-27 02:53:00,67.0,52.2,29.86,SE,140,7.0,15.0,59,0.00,,,0.00,0,Wunderground v.1.15,2013-09-27 07:53:00,
2013-09-27 02:54:00,66.9,52.6,29.86,ESE,107,6.0,15.0,60,0.00,,,0.00,0,Wunderground v.1.15,2013-09-27 07:54:00,
2013-09-27 02:55:00,66.9,52.6,29.86,SE,137,3.0,15.0,60,0.00,,,0.00,0,Wunderground v.1.15,2013-09-27 07:55:00,
2013-09-27 02:57:00,66.8,52.5,29.86,SSE,157,6.0,15.0,60,0.00,,,0.00,0,Wunderground v.1.15,2013-09-27 07:57:00,
2013-09-27 02:59:00,66.8,52.5,29.86,SE,137,6.0,15.0,60,0.00,,,0.00,0,Wunderground v.1.15,2013-09-27 07:59:00,
2013-09-27 03:01:00,66.8,52.5,29.85,South,171,6.0,15.0,60,0.00,,,0.00,0,Wunderground v.1.15,2013-09-27 08:01:00,
2013-09-27 03:02:00,66.8,52.5,29.86,SE,136,1.0,15.0,60,0.00,,,0.00,0,Wunderground v.1.15,2013-09-27 08:02:00,
2013-09-27 03:04:00,66.8,52.5,29.86,East,100,3.0,15.0,60,0.00,,,0.00,0,Wunderground v.1.15,2013-09-27 08:04:00,
2013-09-27 03:05:00,66.8,52.5,29.85,SSE,147,7.0,15.0,60,0.00,,,0.00,0,Wunderground v.1.15,2013-09-27 08:05:00,
2013-09-27 03:07:00,66.7,52.4,29.86,SSE,154,5.0,15.0,60,0.00,,,0.00,0,Wunderground v.1.15,2013-09-27 08:07:00,
2013-09-27 03:10:00,66.7,52.4,29.86,SE,125,5.0,15.0,60,0.00,,,0.00,0,Wunderground v.1.15,2013-09-27 08:10:00,
2013-09-27 03:12:00,66.7,52.4,29.85,SSE,151,6.0,15.0,60,0.00,,,0.00,0,Wunderground v.1.15,2013-09-27 08:12:00,
2013-09-27 03:15:00,66.6,52.3,29.86,SE,128,1.0,15.0,60,0.00,,,0.00,0,Wunderground v.1.15,2013-09-27 08:15:00,
2013-09-27 03:18:00,66.6,52.7,29.86,SSE,149,8.0,15.0,61,0.00,,,0.00,0,Wunderground v.1.15,2013-09-27 08:18:00,
2013-09-27 03:19:00,66.6,52.7,29.86,SE,141,6.0,15.0,61,0.00,,,0.00,0,Wunderground v.1.15,2013-09-27 08:19:00,
2013-09-27 03:21:00,66.7,52.8,29.85,SSE,155,8.0,15.0,61,0.00,,,0.00,0,Wunderground v.1.15,2013-09-27 08:21:00,
2013-09-27 03:23:00,66.7,52.8,29.85,SSE,157,5.0,15.0,61,0.00,,,0.00,0,Wunderground v.1.15,2013-09-27 08:23:00,
2013-09-27 03:24:00,66.7,52.4,29.86,SE,129,4.0,15.0,60,0.00,,,0.00,0,Wunderground v.1.15,2013-09-27 08:24:00,
2013-09-27 03:25:00,66.7,52.4,29.86,SSE,149,2.0,15.0,60,0.00,,,0.00,0,Wunderground v.1.15,2013-09-27 08:25:00,
2013-09-27 03:29:00,66.5,52.6,29.86,SSE,148,4.0,15.0,61,0.00,,,0.00,0,Wunderground v.1.15,2013-09-27 08:29:00,
2013-09-27 03:30:00,66.5,52.6,29.86,SSE,153,3.0,15.0,61,0.00,,,0.00,0,Wunderground v.1.15,2013-09-27 08:30:00,
2013-09-27 03:31:00,66.5,52.6,29.86,ESE,123,8.0,15.0,61,0.00,,,0.00,0,Wunderground v.1.15,2013-09-27 08:31:00,
2013-09-27 03:32:00,66.5,52.6,29.85,SSE,156,7.0,15.0,61,0.00,,,0.00,0,Wunderground v.1.15,2013-09-27 08:32:00,
2013-09-27 03:35:00,66.4,52.5,29.86,SSE,154,10.0,15.0,61,0.00,,,0.00,0,Wunderground v.1.15,2013-09-27 08:35:00,
2013-09-27 03:36:00,66.4,52.5,29.86,ESE,121,1.0,15.0,61,0.00,,,0.00,0,Wunderground v.1.15,2013-09-27 08:36:00,
2013-09-27 03:37:00,66.4,52.5,29.86,SE,135,4.0,15.0,61,0.00,,,0.00,0,Wunderground v.1.15,2013-09-27 08:37:00,
2013-09-27 03:38:00,66.4,53.0,29.86,SE,140,6.0,15.0,62,0.00,,,0.00,0,Wunderground v.1.15,2013-09-27 08:38:00,
2013-09-27 03:41:00,66.4,53.0,29.86,East,97,6.0,15.0,62,0.00,,,0.00,0,Wunderground v.1.15,2013-09-27 08:41:00,
2013-09-27 03:43:00,66.4,53.0,29.86,South,171,6.0,15.0,62,0.00,,,0.00,0,Wunderground v.1.15,2013-09-27 08:43:00,
2013-09-27 03:45:00,66.4,53.0,29.86,SE,126,5.0,15.0,62,0.00,,,0.00,0,Wunderground v.1.15,2013-09-27 08:45:00,
2013-09-27 03:46:00,66.4,53.0,29.86,SE,144,6.0,15.0,62,0.00,,,0.00,0,Wunderground v.1.15,2013-09-27 08:46:00,
2013-09-27 03:48:00,66.4,53.0,29.86,SE,128,7.0,15.0,62,0.00,,,0.00,0,Wunderground v.1.15,2013-09-27 08:48:00,
2013-09-27 03:49:00,66.4,53.0,29.86,SSE,165,7.0,15.0,62,0.00,,,0.00,0,Wunderground v.1.15,2013-09-27 08:49:00,
2013-09-27 03:50:00,66.4,53.0,29.86,SE,135,3.0,15.0,62,0.00,,,0.00,0,Wunderground v.1.15,2013-09-27 08:50:00,
2013-09-27 03:54:00,66.4,53.0,29.86,SE,128,11.0,15.0,62,0.00,,,0.00,0,Wunderground v.1.15,2013-09-27 08:54:00,
2013-09-27 03:56:00,66.3,52.9,29.86,SSE,148,5.0,15.0,62,0.00,,,0.00,0,Wunderground v.1.15,2013-09-27 08:56:00,
2013-09-27 03:57:00,66.3,52.9,29.86,SSE,151,8.0,15.0,62,0.00,,,0.00,0,Wunderground v.1.15,2013-09-27 08:57:00,
2013-09-27 03:59:00,66.3,52.9,29.86,SE,130,6.0,15.0,62,0.00,,,0.00,0,Wunderground v.1.15,2013-09-27 08:59:00,
2013-09-27 04:00:00,66.3,52.9,29.86,SE,130,5.0,15.0,62,0.00,,,0.00,0,Wunderground v.1.15,2013-09-27 09:00:00,
2013-09-27 04:03:00,66.2,52.8,29.86,South,177,9.0,15.0,62,0.00,,,0.00,0,Wunderground v.1.15,2013-09-27 09:03:00,
2013-09-27 04:04:00,66.1,53.1,29.86,SE,126,5.0,15.0,63,0.00,,,0.00,0,Wunderground v.1.15,2013-09-27 09:04:00,
2013-09-27 04:05:00,66.1,53.1,29.86,SE,143,8.0,15.0,63,0.00,,,0.00,0,Wunderground v.1.15,2013-09-27 09:05:00,
2013-09-27 04:08:00,66.1,53.1,29.86,SSE,148,8.0,15.0,63,0.00,,,0.00,0,Wunderground v.1.15,2013-09-27 09:08:00,
2013-09-27 04:09:00,66.1,53.1,29.86,ESE,114,5.0,15.0,63,0.00,,,0.00,0,Wunderground v.1.15,2013-09-27 09:09:00,
2013-09-27 04:11:00,66.1,53.1,29.86,SE,141,7.0,15.0,63,0.00,,,0.00,0,Wunderground v.1.15,2013-09-27 09:11:00,
2013-09-27 04:14:00,66.1,53.1,29.86,SE,129,6.0,15.0,63,0.00,,,0.00,0,Wunderground v.1.15,2013-09-27 09:14:00,
2013-09-27 04:15:00,66.1,53.1,29.86,SE,138,6.0,15.0,63,0.00,,,0.00,0,Wunderground v.1.15,2013-09-27 09:15:00,
2013-09-27 04:16:00,66.1,53.6,29.86,SE,144,9.0,15.0,64,0.00,,,0.00,0,Wunderground v.1.15,2013-09-27 09:16:00,
2013-09-27 04:18:00,66.0,53.0,29.86,ESE,109,3.0,15.0,63,0.00,,,0.00,0,Wunderground v.1.15,2013-09-27 09:18:00,
2013-09-27 04:20:00,66.0,53.0,29.86,SE,134,5.0,15.0,63,0.00,,,0.00,0,Wunderground v.1.15,2013-09-27 09:20:00,
2013-09-27 04:21:00,66.0,53.0,29.86,SE,141,4.0,15.0,63,0.00,,,0.00,0,Wunderground v.1.15,2013-09-27 09:21:00,
2013-09-27 04:22:00,66.0,53.5,29.85,SE,144,9.0,15.0,64,0.00,,,0.00,0,Wunderground v.1.15,2013-09-27 09:22:00,
2013-09-27 04:24:00,66.0,53.5,29.86,SE,134,5.0,15.0,64,0.00,,,0.00,0,Wunderground v.1.15,2013-09-27 09:24:00,
2013-09-27 04:26:00,66.0,53.5,29.85,SSE,151,8.0,15.0,64,0.00,,,0.00,0,Wunderground v.1.15,2013-09-27 09:26:00,
2013-09-27 04:27:00,66.0,53.5,29.85,SE,144,8.0,15.0,64,0.00,,,0.00,0,Wunderground v.1.15,2013-09-27 09:27:00,
2013-09-27 04:28:00,66.0,53.5,29.85,SE,127,7.0,15.0,64,0.00,,,0.00,0,Wunderground v.1.15,2013-09-27 09:28:00,
2013-09-27 04:32:00,65.9,53.4,29.85,SE,146,3.0,15.0,64,0.00,,,0.00,0,Wunderground v.1.15,2013-09-27 09:32:00,
2013-09-27 04:33:00,65.9,53.4,29.85,SE,135,5.0,15.0,64,0.00,,,0.00,0,Wunderground v.1.15,2013-09-27 09:33:00,
2013-09-27 04:34:00,65.8,53.3,29.85,SE,125,7.0,15.0,64,0.00,,,0.00,0,Wunderground v.1.15,2013-09-27 09:34:00,
2013-09-27 04:38:00,65.8,53.7,29.85,ESE,118,3.0,15.0,65,0.00,,,0.00,0,Wunderground v.1.15,2013-09-27 09:38:00,
2013-09-27 04:40:00,65.7,53.6,29.85,SE,140,7.0,15.0,65,0.00,,,0.00,0,Wunderground v.1.15,2013-09-27 09:40:00,
2013-09-27 04:41:00,65.7,54.0,29.85,SE,133,5.0,15.0,66,0.00,,,0.00,0,Wunderground v.1.15,2013-09-27 09:41:00,
2013-09-27 04:43:00,65.7,54.0,29.85,ESE,120,3.0,15.0,66,0.00,,,0.00,0,Wunderground v.1.15,2013-09-27 09:43:00,
2013-09-27 04:46:00,65.7,54.0,29.85,SE,128,6.0,15.0,66,0.00,,,0.00,0,Wunderground v.1.15,2013-09-27 09:46:00,
2013-09-27 04:48:00,65.6,53.9,29.85,SE,136,7.0,15.0,66,0.00,,,0.00,0,Wunderground v.1.15,2013-09-27 09:48:00,
2013-09-27 04:49:00,65.6,54.3,29.85,SSE,147,9.0,15.0,67,0.00,,,0.00,0,Wunderground v.1.15,2013-09-27 09:49:00,
2013-09-27 04:50:00,65.7,54.4,29.85,ENE,78,3.0,15.0,67,0.00,,,0.00,0,Wunderground v.1.15,2013-09-27 09:50:00,
2013-09-27 04:52:00,65.7,54.4,29.86,SE,141,7.0,15.0,67,0.00,,,0.00,0,Wunderground v.1.15,2013-09-27 09:52:00,
2013-09-27 04:53:00,65.7,54.4,29.86,SE,146,4.0,15.0,67,0.00,,,0.00,0,Wunderground v.1.15,2013-09-27 09:53:00,
2013-09-27 04:54:00,65.7,54.4,29.85,SE,145,7.0,15.0,67,0.00,,,0.00,0,Wunderground v.1.15,2013-09-27 09:54:00,
2013-09-27 04:57:00,65.7,54.4,29.85,SE,136,10.0,15.0,67,0.00,,,0.00,0,Wunderground v.1.15,2013-09-27 09:57:00,
2013-09-27 04:59:00,65.7,54.4,29.85,SE,145,8.0,15.0,67,0.00,,,0.00,0,Wunderground v.1.15,2013-09-27 09:59:00,
2013-09-27 05:01:00,65.7,54.4,29.86,SE,135,10.0,15.0,67,0.00,,,0.00,0,Wunderground v.1.15,2013-09-27 10:01:00,
2013-09-27 05:02:00,65.7,54.4,29.85,ESE,121,6.0,15.0,67,0.00,,,0.00,0,Wunderground v.1.15,2013-09-27 10:02:00,
2013-09-27 05:04:00,65.7,54.4,29.85,SE,138,8.0,15.0,67,0.00,,,0.00,0,Wunderground v.1.15,2013-09-27 10:04:00,
2013-09-27 05:05:00,65.7,54.4,29.85,SSE,151,7.0,15.0,67,0.00,,,0.00,0,Wunderground v.1.15,2013-09-27 10:05:00,
2013-09-27 05:06:00,65.7,54.8,29.85,SE,141,15.0,15.0,68,0.00,,,0.00,0,Wunderground v.1.15,2013-09-27 10:06:00,
2013-09-27 05:09:00,65.8,54.9,29.85,SSW,203,6.0,15.0,68,0.00,,,0.00,0,Wunderground v.1.15,2013-09-27 10:09:00,
2013-09-27 05:10:00,65.8,54.9,29.85,SE,140,7.0,15.0,68,0.00,,,0.00,0,Wunderground v.1.15,2013-09-27 10:10:00,
2013-09-27 05:11:00,65.8,54.9,29.85,SE,134,14.0,15.0,68,0.00,,,0.00,0,Wunderground v.1.15,2013-09-27 10:11:00,
2013-09-27 05:12:00,65.9,54.6,29.86,SSE,157,8.0,15.0,67,0.00,,,0.00,0,Wunderground v.1.15,2013-09-27 10:12:00,
2013-09-27 05:14:00,66.0,54.7,29.85,ESE,119,5.0,15.0,67,0.00,,,0.00,0,Wunderground v.1.15,2013-09-27 10:14:00,
2013-09-27 05:16:00,66.1,54.8,29.85,SSE,153,8.0,15.0,67,0.00,,,0.00,0,Wunderground v.1.15,2013-09-27 10:16:00,
2013-09-27 05:17:00,66.1,54.8,29.85,SE,135,6.0,15.0,67,0.00,,,0.00,0,Wunderground v.1.15,2013-09-27 10:17:00,
2013-09-27 05:18:00,66.1,54.4,29.85,SE,132,12.0,15.0,66,0.00,,,0.00,0,Wunderground v.1.15,2013-09-27 10:18:00,
2013-09-27 05:22:00,66.2,54.5,29.86,SE,141,6.0,15.0,66,0.00,,,0.00,0,Wunderground v.1.15,2013-09-27 10:22:00,
2013-09-27 05:24:00,66.2,54.5,29.85,SE,135,7.0,15.0,66,0.00,,,0.00,0,Wunderground v.1.15,2013-09-27 10:24:00,
2013-09-27 05:26:00,66.2,54.5,29.85,South,169,3.0,15.0,66,0.00,,,0.00,0,Wunderground v.1.15,2013-09-27 10:26:00,
2013-09-27 05:28:00,66.1,54.4,29.85,South,169,8.0,15.0,66,0.00,,,0.00,0,Wunderground v.1.15,2013-09-27 10:28:00,
2013-09-27 05:29:00,66.1,54.4,29.85,SSE,155,5.0,15.0,66,0.00,,,0.00,0,Wunderground v.1.15,2013-09-27 10:29:00,
2013-09-27 05:34:00,66.1,54.4,29.85,South,179,6.0,15.0,66,0.00,,,0.00,0,Wunderground v.1.15,2013-09-27 10:34:00,
2013-09-27 05:36:00,66.0,54.3,29.85,SE,141,9.0,15.0,66,0.00,,,0.00,0,Wunderground v.1.15,2013-09-27 10:36:00,
2013-09-27 05:38:00,66.0,54.3,29.85,SE,139,10.0,15.0,66,0.00,,,0.00,0,Wunderground v.1.15,2013-09-27 10:38:00,
2013-09-27 05:39:00,66.0,54.3,29.85,SSE,151,9.0,15.0,66,0.00,,,0.00,0,Wunderground v.1.15,2013-09-27 10:39:00,
2013-09-27 05:40:00,66.0,54.3,29.85,ESE,123,9.0,15.0,66,0.00,,,0.00,0,Wunderground v.1.15,2013-09-27 10:40:00,
2013-09-27 05:42:00,65.9,54.2,29.85,SE,139,9.0,15.0,66,0.00,,,0.00,0,Wunderground v.1.15,2013-09-27 10:42:00,
2013-09-27 05:44:00,65.9,54.6,29.85,SE,146,6.0,15.0,67,0.00,,,0.00,0,Wunderground v.1.15,2013-09-27 10:44:00,
2013-09-27 05:45:00,65.9,54.2,29.85,SE,137,7.0,15.0,66,0.00,,,0.00,0,Wunderground v.1.15,2013-09-27 10:45:00,
2013-09-27 05:50:00,65.7,54.4,29.85,SSE,148,7.0,15.0,67,0.00,,,0.00,0,Wunderground v.1.15,2013-09-27 10:50:00,
2013-09-27 05:52:00,65.7,54.4,29.85,SE,145,8.0,15.0,67,0.00,,,0.00,0,Wunderground v.1.15,2013-09-27 10:52:00,
2013-09-27 05:53:00,65.7,54.8,29.85,SSE,153,8.0,15.0,68,0.00,,,0.00,0,Wunderground v.1.15,2013-09-27 10:53:00,
2013-09-27 05:55:00,65.7,54.8,29.85,SE,135,7.0,15.0,68,0.00,,,0.00,0,Wunderground v.1.15,2013-09-27 10:55:00,
2013-09-27 05:56:00,65.6,54.8,29.85,SE,145,4.0,15.0,68,0.00,,,0.00,0,Wunderground v.1.15,2013-09-27 10:56:00,
2013-09-27 05:58:00,65.6,54.8,29.86,SSE,155,6.0,15.0,68,0.00,,,0.00,0,Wunderground v.1.15,2013-09-27 10:58:00,
2013-09-27 06:00:00,65.5,55.1,29.85,SE,146,4.0,15.0,69,0.00,,,0.00,0,Wunderground v.1.15,2013-09-27 11:00:00,
2013-09-27 06:03:00,65.5,55.1,29.85,SE,141,9.0,15.0,69,0.00,,,0.00,0,Wunderground v.1.15,2013-09-27 11:03:00,
2013-09-27 06:05:00,65.5,55.5,29.85,SE,127,11.0,15.0,70,0.00,,,0.00,0,Wunderground v.1.15,2013-09-27 11:05:00,
2013-09-27 06:07:00,65.5,55.5,29.85,SE,127,6.0,15.0,70,0.00,,,0.00,0,Wunderground v.1.15,2013-09-27 11:07:00,
2013-09-27 06:08:00,65.5,55.5,29.85,SE,143,7.0,15.0,70,0.00,,,0.00,0,Wunderground v.1.15,2013-09-27 11:08:00,
2013-09-27 06:10:00,65.5,55.5,29.86,SE,146,5.0,15.0,70,0.00,,,0.00,0,Wunderground v.1.15,2013-09-27 11:10:00,
2013-09-27 06:11:00,65.5,55.5,29.85,East,101,3.0,15.0,70,0.00,,,0.00,0,Wunderground v.1.15,2013-09-27 11:11:00,
2013-09-27 06:12:00,65.5,55.5,29.86,SSE,147,7.0,15.0,70,0.00,,,0.00,0,Wunderground v.1.15,2013-09-27 11:12:00,
2013-09-27 06:14:00,65.4,55.7,29.86,SE,142,6.0,15.0,71,0.00,,,0.00,0,Wunderground v.1.15,2013-09-27 11:14:00,
2013-09-27 06:16:00,65.4,56.1,29.86,ESE,112,6.0,15.0,72,0.00,,,0.00,0,Wunderground v.1.15,2013-09-27 11:16:00,
2013-09-27 06:17:00,65.4,56.1,29.86,SE,138,8.0,15.0,72,0.00,,,0.00,0,Wunderground v.1.15,2013-09-27 11:17:00,
2013-09-27 06:20:00,65.3,56.0,29.85,SE,139,4.0,15.0,72,0.00,,,0.00,0,Wunderground v.1.15,2013-09-27 11:20:00,
2013-09-27 06:21:00,65.3,56.4,29.85,SE,138,3.0,15.0,73,0.00,,,0.00,0,Wunderground v.1.15,2013-09-27 11:21:00,
2013-09-27 06:23:00,65.2,56.3,29.86,SSE,155,2.0,15.0,73,0.00,,,0.00,0,Wunderground v.1.15,2013-09-27 11:23:00,
2013-09-27 06:26:00,65.2,57.4,29.85,ESE,121,3.0,15.0,76,0.00,,,0.00,0,Wunderground v.1.15,2013-09-27 11:26:00,
2013-09-27 06:28:00,65.2,57.4,29.86,ESE,122,4.0,15.0,76,0.00,,,0.00,0,Wunderground v.1.15,2013-09-27 11:28:00,
2013-09-27 06:30:00,65.1,57.3,29.86,SSE,156,4.0,15.0,76,0.00,,,0.00,0,Wunderground v.1.15,2013-09-27 11:30:00,
2013-09-27 06:35:00,64.9,57.9,29.86,SSE,149,4.0,15.0,78,0.00,,,0.00,0,Wunderground v.1.15,2013-09-27 11:35:00,
2013-09-27 06:36:00,64.8,57.8,29.86,SSE,147,6.0,15.0,78,0.00,,,0.00,0,Wunderground v.1.15,2013-09-27 11:36:00,
2013-09-27 06:37:00,64.8,58.1,29.87,ESE,123,8.0,15.0,79,0.00,,,0.00,0,Wunderground v.1.15,2013-09-27 11:37:00,
2013-09-27 06:40:00,64.7,58.4,29.86,East,94,2.0,15.0,80,0.00,,,0.00,0,Wunderground v.1.15,2013-09-27 11:40:00,
2013-09-27 06:41:00,64.7,58.4,29.86,ESE,122,3.0,15.0,80,0.00,,,0.00,0,Wunderground v.1.15,2013-09-27 11:41:00,
2013-09-27 06:43:00,64.6,58.6,29.86,SE,145,7.0,15.0,81,0.00,,,0.00,0,Wunderground v.1.15,2013-09-27 11:43:00,
2013-09-27 06:44:00,64.6,58.6,29.87,SE,136,2.0,15.0,81,0.00,,,0.00,0,Wunderground v.1.15,2013-09-27 11:44:00,
2013-09-27 06:45:00,64.5,58.5,29.87,SE,124,4.0,15.0,81,0.00,,,0.00,0,Wunderground v.1.15,2013-09-27 11:45:00,
2013-09-27 06:51:00,64.4,58.4,29.87,SSE,162,3.0,15.0,81,0.00,,,0.00,0,Wunderground v.1.15,2013-09-27 11:51:00,
2013-09-27 06:52:00,64.4,58.8,29.87,SE,140,4.0,15.0,82,0.00,,,0.00,0,Wunderground v.1.15,2013-09-27 11:52:00,
2013-09-27 06:53:00,64.4,58.4,29.87,SE,137,3.0,15.0,81,0.00,,,0.00,0,Wunderground v.1.15,2013-09-27 11:53:00,
2013-09-27 06:54:00,64.4,58.8,29.87,SE,146,6.0,15.0,82,0.00,,,0.00,0,Wunderground v.1.15,2013-09-27 11:54:00,
2013-09-27 06:56:00,64.3,58.7,29.87,SE,141,8.0,15.0,82,0.00,,,0.00,0,Wunderground v.1.15,2013-09-27 11:56:00,
2013-09-27 06:59:00,64.3,58.7,29.87,SE,133,4.0,15.0,82,0.00,,,0.00,0,Wunderground v.1.15,2013-09-27 11:59:00,
2013-09-27 07:00:00,64.3,58.7,29.87,SE,146,7.0,15.0,82,0.00,,,0.00,0,Wunderground v.1.15,2013-09-27 12:00:00,
2013-09-27 07:01:00,64.2,58.6,29.87,ESE,121,4.0,15.0,82,0.00,,,0.00,0,Wunderground v.1.15,2013-09-27 12:01:00,
2013-09-27 07:03:00,64.2,58.6,29.86,East,80,4.0,15.0,82,0.00,,,0.00,0,Wunderground v.1.15,2013-09-27 12:03:00,
2013-09-27 07:04:00,64.2,58.6,29.86,ESE,103,3.0,15.0,82,0.00,,,0.00,0,Wunderground v.1.15,2013-09-27 12:04:00,
2013-09-27 07:06:00,64.2,58.6,29.86,SE,126,3.0,15.0,82,0.00,,,0.00,0,Wunderground v.1.15,2013-09-27 12:06:00,
2013-09-27 07:07:00,64.1,58.5,29.86,SE,132,4.0,15.0,82,0.00,,,0.00,0,Wunderground v.1.15,2013-09-27 12:07:00,
2013-09-27 07:09:00,64.1,58.5,29.86,ESE,116,3.0,15.0,82,0.00,,,0.00,0,Wunderground v.1.15,2013-09-27 12:09:00,
2013-09-27 07:10:00,64.0,58.4,29.86,SE,128,6.0,15.0,82,0.00,,,0.00,0,Wunderground v.1.15,2013-09-27 12:10:00,
2013-09-27 07:14:00,63.9,58.6,29.86,ESE,102,4.0,15.0,83,0.00,,,0.00,0,Wunderground v.1.15,2013-09-27 12:14:00,
2013-09-27 07:15:00,63.9,58.6,29.86,SE,124,3.0,15.0,83,0.00,,,0.00,0,Wunderground v.1.15,2013-09-27 12:15:00,
2013-09-27 07:16:00,63.9,58.6,29.86,SE,124,2.0,15.0,83,0.00,,,0.00,0,Wunderground v.1.15,2013-09-27 12:16:00,
2013-09-27 07:17:00,63.9,58.6,29.86,SE,124,5.0,15.0,83,0.00,,,0.00,0,Wunderground v.1.15,2013-09-27 12:17:00,
2013-09-27 07:20:00,63.8,58.5,29.86,SE,143,6.0,15.0,83,0.00,,,0.00,0,Wunderground v.1.15,2013-09-27 12:20:00,
2013-09-27 07:21:00,63.8,58.5,29.86,ESE,109,2.0,15.0,83,0.00,,,0.00,0,Wunderground v.1.15,2013-09-27 12:21:00,
2013-09-27 07:22:00,63.8,58.5,29.86,SE,128,2.0,15.0,83,0.00,,,0.00,0,Wunderground v.1.15,2013-09-27 12:22:00,
2013-09-27 07:26:00,63.8,58.9,29.86,ESE,116,2.0,15.0,84,0.00,,,0.00,0,Wunderground v.1.15,2013-09-27 12:26:00,
2013-09-27 07:27:00,63.8,58.9,29.86,SE,131,5.0,15.0,84,0.00,,,0.00,0,Wunderground v.1.15,2013-09-27 12:27:00,
2013-09-27 07:28:00,63.9,59.0,29.86,SE,140,8.0,15.0,84,0.00,,,0.00,0,Wunderground v.1.15,2013-09-27 12:28:00,
2013-09-27 07:31:00,63.9,59.0,29.86,SSE,147,10.0,15.0,84,0.00,,,0.00,0,Wunderground v.1.15,2013-09-27 12:31:00,
2013-09-27 07:32:00,63.9,58.6,29.86,SE,132,3.0,15.0,83,0.00,,,0.00,0,Wunderground v.1.15,2013-09-27 12:32:00,
2013-09-27 07:35:00,64.0,58.7,29.86,ESE,114,5.0,15.0,83,0.00,,,0.00,0,Wunderground v.1.15,2013-09-27 12:35:00,
2013-09-27 07:36:00,64.0,58.7,29.86,SE,143,7.0,15.0,83,0.00,,,0.00,0,Wunderground v.1.15,2013-09-27 12:36:00,
2013-09-27 07:39:00,64.0,58.7,29.86,SE,141,5.0,15.0,83,0.00,,,0.00,0,Wunderground v.1.15,2013-09-27 12:39:00,
2013-09-27 07:41:00,64.0,58.7,29.86,SSE,167,6.0,15.0,83,0.00,,,0.00,0,Wunderground v.1.15,2013-09-27 12:41:00,
2013-09-27 07:42:00,64.0,58.7,29.86,SE,141,7.0,15.0,83,0.00,,,0.00,0,Wunderground v.1.15,2013-09-27 12:42:00,
2013-09-27 07:46:00,64.1,58.8,29.87,SE,128,4.0,15.0,83,0.00,,,0.00,0,Wunderground v.1.15,2013-09-27 12:46:00,
2013-09-27 07:48:00,64.1,58.8,29.86,SE,140,6.0,15.0,83,0.00,,,0.00,0,Wunderground v.1.15,2013-09-27 12:48:00,
2013-09-27 07:51:00,64.1,58.8,29.86,SE,141,6.0,15.0,83,0.00,,,0.00,0,Wunderground v.1.15,2013-09-27 12:51:00,
2013-09-27 07:53:00,64.1,58.8,29.86,ESE,120,2.0,15.0,83,0.00,,,0.00,0,Wunderground v.1.15,2013-09-27 12:53:00,
2013-09-27 07:56:00,64.2,58.9,29.86,SE,140,8.0,15.0,83,0.00,,,0.00,0,Wunderground v.1.15,2013-09-27 12:56:00,
2013-09-27 07:57:00,64.2,58.9,29.86,SE,146,5.0,15.0,83,0.00,,,0.00,0,Wunderground v.1.15,2013-09-27 12:57:00,
2013-09-27 07:58:00,64.2,58.9,29.87,SE,140,9.0,15.0,83,0.00,,,0.00,0,Wunderground v.1.15,2013-09-27 12:58:00,
2013-09-27 07:59:00,64.2,58.9,29.87,SE,139,7.0,15.0,83,0.00,,,0.00,0,Wunderground v.1.15,2013-09-27 12:59:00,
2013-09-27 08:02:00,64.3,59.0,29.86,SE,126,5.0,15.0,83,0.00,,,0.00,0,Wunderground v.1.15,2013-09-27 13:02:00,
2013-09-27 08:03:00,64.3,59.0,29.86,SE,144,7.0,15.0,83,0.00,,,0.00,0,Wunderground v.1.15,2013-09-27 13:03:00,
2013-09-27 08:06:00,64.4,58.8,29.86,SE,145,6.0,15.0,82,0.00,,,0.00,0,Wunderground v.1.15,2013-09-27 13:06:00,
2013-09-27 08:09:00,64.4,58.8,29.86,SE,128,8.0,15.0,82,0.00,,,0.00,0,Wunderground v.1.15,2013-09-27 13:09:00,
2013-09-27 08:10:00,64.5,58.9,29.86,SE,144,3.0,15.0,82,0.00,,,0.00,0,Wunderground v.1.15,2013-09-27 13:10:00,
2013-09-27 08:12:00,64.5,58.5,29.86,SE,129,7.0,15.0,81,0.00,,,0.00,0,Wunderground v.1.15,2013-09-27 13:12:00,
2013-09-27 08:15:00,64.5,58.9,29.86,SSE,153,7.0,15.0,82,0.00,,,0.00,0,Wunderground v.1.15,2013-09-27 13:15:00,
2013-09-27 08:16:00,64.5,58.9,29.86,SE,134,4.0,15.0,82,0.00,,,0.00,0,Wunderground v.1.15,2013-09-27 13:16:00,
2013-09-27 08:18:00,64.6,58.6,29.86,SSE,159,8.0,15.0,81,0.00,,,0.00,0,Wunderground v.1.15,2013-09-27 13:18:00,
2013-09-27 08:21:00,64.7,58.7,29.86,South,180,5.0,15.0,81,0.00,,,0.00,0,Wunderground v.1.15,2013-09-27 13:21:00,
2013-09-27 08:23:00,64.7,58.7,29.86,SE,127,8.0,15.0,81,0.00,,,0.00,0,Wunderground v.1.15,2013-09-27 13:23:00,
2013-09-27 08:24:00,64.7,58.7,29.87,SSE,153,7.0,15.0,81,0.00,,,0.00,0,Wunderground v.1.15,2013-09-27 13:24:00,
2013-09-27 08:26:00,64.8,58.8,29.86,SE,138,9.0,15.0,81,0.00,,,0.00,0,Wunderground v.1.15,2013-09-27 13:26:00,
2013-09-27 08:28:00,64.8,58.8,29.86,SE,139,7.0,15.0,81,0.00,,,0.00,0,Wunderground v.1.15,2013-09-27 13:28:00,
2013-09-27 08:29:00,64.9,58.9,29.86,SE,144,10.0,15.0,81,0.00,,,0.00,0,Wunderground v.1.15,2013-09-27 13:29:00,
2013-09-27 08:31:00,64.9,58.9,29.87,SSE,153,9.0,15.0,81,0.00,,,0.00,0,Wunderground v.1.15,2013-09-27 13:31:00,
2013-09-27 08:34:00,65.0,59.0,29.87,SE,133,12.0,15.0,81,0.00,,,0.00,0,Wunderground v.1.15,2013-09-27 13:34:00,
2013-09-27 08:35:00,65.0,59.0,29.87,SE,133,5.0,15.0,81,0.00,,,0.00,0,Wunderground v.1.15,2013-09-27 13:35:00,
2013-09-27 08:37:00,65.0,59.0,29.87,SSE,152,7.0,15.0,81,0.00,,,0.00,0,Wunderground v.1.15,2013-09-27 13:37:00,
2013-09-27 08:41:00,65.0,59.0,29.87,SSE,163,5.0,15.0,81,0.00,,,0.00,0,Wunderground v.1.15,2013-09-27 13:41:00,
2013-09-27 08:42:00,65.1,59.1,29.87,ESE,117,6.0,15.0,81,0.00,,,0.00,0,Wunderground v.1.15,2013-09-27 13:42:00,
2013-09-27 08:45:00,65.1,59.1,29.87,ESE,119,8.0,15.0,81,0.00,,,0.00,0,Wunderground v.1.15,2013-09-27 13:45:00,
2013-09-27 08:46:00,65.1,59.1,29.87,SE,138,7.0,15.0,81,0.00,,,0.00,0,Wunderground v.1.15,2013-09-27 13:46:00,
2013-09-27 08:47:00,65.1,59.1,29.88,ESE,122,3.0,15.0,81,0.00,,,0.00,0,Wunderground v.1.15,2013-09-27 13:47:00,
2013-09-27 08:50:00,65.1,59.1,29.87,SE,132,2.0,15.0,81,0.00,,,0.00,0,Wunderground v.1.15,2013-09-27 13:50:00,
2013-09-27 08:51:00,65.2,59.2,29.88,SE,135,2.0,15.0,81,0.00,,,0.00,0,Wunderground v.1.15,2013-09-27 13:51:00,
2013-09-27 08:52:00,65.2,59.2,29.88,SSE,163,3.0,15.0,81,0.00,,,0.00,0,Wunderground v.1.15,2013-09-27 13:52:00,
2013-09-27 08:53:00,65.2,59.2,29.87,SE,144,8.0,15.0,81,0.00,,,0.00,0,Wunderground v.1.15,2013-09-27 13:53:00,
2013-09-27 08:55:00,65.2,59.2,29.88,SE,144,8.0,15.0,81,0.00,,,0.00,0,Wunderground v.1.15,2013-09-27 13:55:00,
2013-09-27 08:57:00,65.2,59.2,29.88,SE,139,2.0,15.0,81,0.00,,,0.00,0,Wunderground v.1.15,2013-09-27 13:57:00,
2013-09-27 08:58:00,65.3,59.3,29.88,SE,135,6.0,15.0,81,0.00,,,0.00,0,Wunderground v.1.15,2013-09-27 13:58:00,
2013-09-27 08:59:00,65.3,59.3,29.87,SE,134,5.0,15.0,81,0.00,,,0.00,0,Wunderground v.1.15,2013-09-27 13:59:00,
2013-09-27 09:01:00,65.3,59.3,29.87,SE,143,6.0,15.0,81,0.00,,,0.00,0,Wunderground v.1.15,2013-09-27 14:01:00,
2013-09-27 09:02:00,65.3,59.3,29.87,ESE,119,3.0,15.0,81,0.00,,,0.00,0,Wunderground v.1.15,2013-09-27 14:02:00,
2013-09-27 09:06:00,65.4,59.4,29.87,SE,131,7.0,15.0,81,0.00,,,0.00,0,Wunderground v.1.15,2013-09-27 14:06:00,
2013-09-27 09:07:00,65.4,59.4,29.87,East,97,2.0,15.0,81,0.00,,,0.00,0,Wunderground v.1.15,2013-09-27 14:07:00,
2013-09-27 09:09:00,65.6,59.6,29.87,SE,145,4.0,15.0,81,0.00,,,0.00,0,Wunderground v.1.15,2013-09-27 14:09:00,
2013-09-27 09:10:00,65.6,60.0,29.87,ESE,120,3.0,15.0,82,0.00,,,0.00,0,Wunderground v.1.15,2013-09-27 14:10:00,
2013-09-27 09:13:00,65.9,59.9,29.87,SE,132,3.0,15.0,81,0.00,,,0.00,0,Wunderground v.1.15,2013-09-27 14:13:00,
2013-09-27 09:14:00,65.9,59.9,29.86,SE,139,5.0,15.0,81,0.00,,,0.00,0,Wunderground v.1.15,2013-09-27 14:14:00,
2013-09-27 09:15:00,66.1,60.1,29.86,SE,129,5.0,15.0,81,0.00,,,0.00,0,Wunderground v.1.15,2013-09-27 14:15:00,
2013-09-27 09:18:00,66.5,60.1,29.87,SE,142,6.0,15.0,80,0.00,,,0.00,0,Wunderground v.1.15,2013-09-27 14:18:00,
2013-09-27 09:19:00,66.7,60.3,29.86,SSE,150,7.0,15.0,80,0.00,,,0.00,0,Wunderground v.1.15,2013-09-27 14:19:00,
2013-09-27 09:20:00,66.8,60.4,29.87,SE,138,6.0,15.0,80,0.00,,,0.00,0,Wunderground v.1.15,2013-09-27 14:20:00,
2013-09-27 09:21:00,66.9,60.2,29.87,SSE,147,6.0,15.0,79,0.00,,,0.00,0,Wunderground v.1.15,2013-09-27 14:21:00,
2013-09-27 09:24:00,67.2,59.7,29.86,SE,140,4.0,15.0,77,0.00,,,0.00,0,Wunderground v.1.15,2013-09-27 14:24:00,
2013-09-27 09:27:00,67.5,60.0,29.87,SSE,151,5.0,15.0,77,0.00,,,0.00,0,Wunderground v.1.15,2013-09-27 14:27:00,
2013-09-27 09:30:00,67.8,59.6,29.86,SSE,149,7.0,15.0,75,0.00,,,0.00,0,Wunderground v.1.15,2013-09-27 14:30:00,
2013-09-27 09:31:00,67.8,59.2,29.86,SSE,155,8.0,15.0,74,0.00,,,0.00,0,Wunderground v.1.15,2013-09-27 14:31:00,
2013-09-27 09:32:00,67.9,59.3,29.86,SE,140,7.0,15.0,74,0.00,,,0.00,0,Wunderground v.1.15,2013-09-27 14:32:00,
2013-09-27 09:33:00,67.9,58.9,29.86,SSE,162,7.0,15.0,73,0.00,,,0.00,0,Wunderground v.1.15,2013-09-27 14:33:00,
2013-09-27 09:37:00,68.1,57.9,29.86,SE,137,13.0,15.0,70,0.00,,,0.00,0,Wunderground v.1.15,2013-09-27 14:37:00,
2013-09-27 09:38:00,68.2,57.6,29.87,SE,133,7.0,15.0,69,0.00,,,0.00,0,Wunderground v.1.15,2013-09-27 14:38:00,
2013-09-27 09:39:00,68.3,57.3,29.86,SE,144,6.0,15.0,68,0.00,,,0.00,0,Wunderground v.1.15,2013-09-27 14:39:00,
2013-09-27 09:41:00,68.3,57.3,29.86,SE,140,6.0,15.0,68,0.00,,,0.00,0,Wunderground v.1.15,2013-09-27 14:41:00,
2013-09-27 09:43:00,68.4,57.0,29.85,ESE,121,2.0,15.0,67,0.00,,,0.00,0,Wunderground v.1.15,2013-09-27 14:43:00,
2013-09-27 09:45:00,68.4,57.0,29.86,South,185,8.0,15.0,67,0.00,,,0.00,0,Wunderground v.1.15,2013-09-27 14:45:00,
2013-09-27 09:47:00,68.5,56.7,29.86,SSE,158,6.0,15.0,66,0.00,,,0.00,0,Wunderground v.1.15,2013-09-27 14:47:00,
2013-09-27 09:48:00,68.5,56.7,29.86,ESE,105,3.0,15.0,66,0.00,,,0.00,0,Wunderground v.1.15,2013-09-27 14:48:00,
2013-09-27 09:49:00,68.5,56.7,29.86,SSE,147,4.0,15.0,66,0.00,,,0.00,0,Wunderground v.1.15,2013-09-27 14:49:00,
2013-09-27 09:52:00,68.6,56.8,29.86,South,171,7.0,15.0,66,0.00,,,0.00,0,Wunderground v.1.15,2013-09-27 14:52:00,
2013-09-27 09:55:00,68.7,56.5,29.85,SSE,161,7.0,15.0,65,0.00,,,0.00,0,Wunderground v.1.15,2013-09-27 14:55:00,
2013-09-27 09:57:00,68.8,56.1,29.86,SE,136,6.0,15.0,64,0.00,,,0.00,0,Wunderground v.1.15,2013-09-27 14:57:00,
2013-09-27 09:58:00,68.8,55.7,29.86,SSW,194,9.0,15.0,63,0.00,,,0.00,0,Wunderground v.1.15,2013-09-27 14:58:00,
2013-09-27 10:03:00,69.0,55.4,29.86,SE,126,8.0,15.0,62,0.00,,,0.00,0,Wunderground v.1.15,2013-09-27 15:03:00,
2013-09-27 10:04:00,69.1,55.1,29.85,SE,134,9.0,15.0,61,0.00,,,0.00,0,Wunderground v.1.15,2013-09-27 15:04:00,
2013-09-27 10:05:00,69.1,54.2,29.85,ESE,104,5.0,15.0,59,0.00,,,0.00,0,Wunderground v.1.15,2013-09-27 15:05:00,
2013-09-27 10:06:00,69.2,54.3,29.85,SSE,154,8.0,15.0,59,0.00,,,0.00,0,Wunderground v.1.15,2013-09-27 15:06:00,
2013-09-27 10:09:00,69.3,53.9,29.85,South,176,8.0,15.0,58,0.00,,,0.00,0,Wunderground v.1.15,2013-09-27 15:09:00,
2013-09-27 10:10:00,69.3,53.9,29.85,SE,138,9.0,15.0,58,0.00,,,0.00,0,Wunderground v.1.15,2013-09-27 15:10:00,
2013-09-27 10:11:00,69.3,53.9,29.85,SSE,155,12.0,15.0,58,0.00,,,0.00,0,Wunderground v.1.15,2013-09-27 15:11:00,
2013-09-27 10:12:00,69.3,53.9,29.85,ESE,105,5.0,15.0,58,0.00,,,0.00,0,Wunderground v.1.15,2013-09-27 15:12:00,
2013-09-27 10:14:00,69.3,53.9,29.85,SE,125,6.0,15.0,58,0.00,,,0.00,0,Wunderground v.1.15,2013-09-27 15:14:00,
2013-09-27 10:16:00,69.3,53.4,29.85,SE,140,12.0,15.0,57,0.00,,,0.00,0,Wunderground v.1.15,2013-09-27 15:16:00,
2013-09-27 10:17:00,69.3,53.4,29.85,SE,146,5.0,15.0,57,0.00,,,0.00,0,Wunderground v.1.15,2013-09-27 15:17:00,
2013-09-27 10:19:00,69.4,53.5,29.85,SE,133,12.0,15.0,57,0.00,,,0.00,0,Wunderground v.1.15,2013-09-27 15:19:00,
2013-09-27 10:20:00,69.4,53.5,29.85,SE,126,8.0,15.0,57,0.00,,,0.00,0,Wunderground v.1.15,2013-09-27 15:20:00,
2013-09-27 10:22:00,69.5,53.6,29.84,SE,139,5.0,15.0,57,0.00,,,0.00,0,Wunderground v.1.15,2013-09-27 15:22:00,
2013-09-27 10:25:00,69.5,53.1,29.84,ESE,115,6.0,15.0,56,0.00,,,0.00,0,Wunderground v.1.15,2013-09-27 15:25:00,
2013-09-27 10:26:00,69.6,53.2,29.85,SE,144,10.0,15.0,56,0.00,,,0.00,0,Wunderground v.1.15,2013-09-27 15:26:00,
2013-09-27 10:28:00,69.6,53.2,29.84,SE,132,4.0,15.0,56,0.00,,,0.00,0,Wunderground v.1.15,2013-09-27 15:28:00,
2013-09-27 10:32:00,69.8,53.4,29.85,SE,130,7.0,15.0,56,0.00,,,0.00,0,Wunderground v.1.15,2013-09-27 15:32:00,
2013-09-27 10:34:00,69.9,53.5,29.84,SE,130,5.0,15.0,56,0.00,,,0.00,0,Wunderground v.1.15,2013-09-27 15:34:00,
2013-09-27 10:35:00,69.9,53.0,29.85,SSE,148,12.0,15.0,55,0.00,,,0.00,0,Wunderground v.1.15,2013-09-27 15:35:00,
2013-09-27 10:37:00,69.9,53.0,29.84,SE,137,13.0,15.0,55,0.00,,,0.00,0,Wunderground v.1.15,2013-09-27 15:37:00,
2013-09-27 10:38:00,70.0,53.1,29.84,SE,143,7.0,15.0,55,0.00,,,0.00,0,Wunderground v.1.15,2013-09-27 15:38:00,
2013-09-27 10:39:00,70.0,53.1,29.84,SE,139,12.0,15.0,55,0.00,,,0.00,0,Wunderground v.1.15,2013-09-27 15:39:00,
2013-09-27 10:41:00,70.0,53.1,29.84,ESE,109,6.0,15.0,55,0.00,,,0.00,0,Wunderground v.1.15,2013-09-27 15:41:00,
2013-09-27 10:42:00,70.1,53.2,29.84,SSE,148,10.0,15.0,55,0.00,,,0.00,0,Wunderground v.1.15,2013-09-27 15:42:00,
2013-09-27 10:44:00,70.1,53.2,29.84,SE,132,5.0,15.0,55,0.00,,,0.00,0,Wunderground v.1.15,2013-09-27 15:44:00,
2013-09-27 10:45:00,70.2,53.3,29.84,SSE,147,9.0,15.0,55,0.00,,,0.00,0,Wunderground v.1.15,2013-09-27 15:45:00,
2013-09-27 10:46:00,70.2,52.8,29.84,SE,136,6.0,15.0,54,0.00,,,0.00,0,Wunderground v.1.15,2013-09-27 15:46:00,
2013-09-27 10:50:00,70.3,52.9,29.84,SE,133,8.0,15.0,54,0.00,,,0.00,0,Wunderground v.1.15,2013-09-27 15:50:00,
2013-09-27 10:51:00,70.3,52.9,29.84,SE,142,10.0,15.0,54,0.00,,,0.00,0,Wunderground v.1.15,2013-09-27 15:51:00,
2013-09-27 10:52:00,70.3,52.9,29.84,SE,126,4.0,15.0,54,0.00,,,0.00,0,Wunderground v.1.15,2013-09-27 15:52:00,
2013-09-27 10:55:00,70.3,53.4,29.84,SE,144,7.0,15.0,55,0.00,,,0.00,0,Wunderground v.1.15,2013-09-27 15:55:00,
2013-09-27 10:56:00,70.3,52.9,29.84,SE,141,8.0,15.0,54,0.00,,,0.00,0,Wunderground v.1.15,2013-09-27 15:56:00,
2013-09-27 10:58:00,70.3,53.4,29.84,SSE,152,6.0,15.0,55,0.00,,,0.00,0,Wunderground v.1.15,2013-09-27 15:58:00,
2013-09-27 11:00:00,70.3,53.4,29.85,SE,142,10.0,15.0,55,0.00,,,0.00,0,Wunderground v.1.15,2013-09-27 16:00:00,
2013-09-27 11:01:00,70.3,53.4,29.84,SE,138,3.0,15.0,55,0.00,,,0.00,0,Wunderground v.1.15,2013-09-27 16:01:00,
2013-09-27 11:03:00,70.3,53.4,29.84,SE,141,5.0,15.0,55,0.00,,,0.00,0,Wunderground v.1.15,2013-09-27 16:03:00,
2013-09-27 11:04:00,70.3,53.4,29.84,ESE,102,8.0,15.0,55,0.00,,,0.00,0,Wunderground v.1.15,2013-09-27 16:04:00,
2013-09-27 11:06:00,70.3,53.4,29.84,South,171,3.0,15.0,55,0.00,,,0.00,0,Wunderground v.1.15,2013-09-27 16:06:00,
2013-09-27 11:09:00,70.5,54.0,29.85,South,175,5.0,15.0,56,0.00,,,0.00,0,Wunderground v.1.15,2013-09-27 16:09:00,
2013-09-27 11:10:00,70.5,53.6,29.85,SE,132,5.0,15.0,55,0.00,,,0.00,0,Wunderground v.1.15,2013-09-27 16:10:00,
2013-09-27 11:11:00,70.6,53.6,29.85,SE,132,2.0,15.0,55,0.00,,,0.00,0,Wunderground v.1.15,2013-09-27 16:11:00,
2013-09-27 11:12:00,70.7,53.7,29.84,South,181,11.0,15.0,55,0.00,,,0.00,0,Wunderground v.1.15,2013-09-27 16:12:00,
2013-09-27 11:14:00,70.8,53.8,29.85,SE,135,7.0,15.0,55,0.00,,,0.00,0,Wunderground v.1.15,2013-09-27 16:14:00,
2013-09-27 11:15:00,70.8,53.8,29.84,SSW,198,7.0,15.0,55,0.00,,,0.00,0,Wunderground v.1.15,2013-09-27 16:15:00,
2013-09-27 11:17:00,70.9,53.4,29.85,SE,138,4.0,15.0,54,0.00,,,0.00,0,Wunderground v.1.15,2013-09-27 16:17:00,
2013-09-27 11:18:00,71.0,53.5,29.85,SSE,150,7.0,15.0,54,0.00,,,0.00,0,Wunderground v.1.15,2013-09-27 16:18:00,
2013-09-27 11:21:00,71.1,53.6,29.85,SSE,161,6.0,15.0,54,0.00,,,0.00,0,Wunderground v.1.15,2013-09-27 16:21:00,
2013-09-27 11:23:00,71.2,53.7,29.85,ESE,110,2.0,15.0,54,0.00,,,0.00,0,Wunderground v.1.15,2013-09-27 16:23:00,
2013-09-27 11:24:00,71.2,53.7,29.85,SSE,159,3.0,15.0,54,0.00,,,0.00,0,Wunderground v.1.15,2013-09-27 16:24:00,
2013-09-27 11:25:00,71.3,53.8,29.85,SE,142,6.0,15.0,54,0.00,,,0.00,0,Wunderground v.1.15,2013-09-27 16:25:00,
2013-09-27 11:29:00,71.4,53.9,29.86,South,189,3.0,15.0,54,0.00,,,0.00,0,Wunderground v.1.15,2013-09-27 16:29:00,
2013-09-27 11:30:00,71.4,53.9,29.85,SSW,192,6.0,15.0,54,0.00,,,0.00,0,Wunderground v.1.15,2013-09-27 16:30:00,
2013-09-27 11:31:00,71.4,53.9,29.85,SE,136,7.0,15.0,54,0.00,,,0.00,0,Wunderground v.1.15,2013-09-27 16:31:00,
2013-09-27 11:32:00,71.5,53.5,29.86,SSE,147,4.0,15.0,53,0.00,,,0.00,0,Wunderground v.1.15,2013-09-27 16:32:00,
2013-09-27 11:33:00,71.5,53.5,29.85,South,171,4.0,15.0,53,0.00,,,0.00,0,Wunderground v.1.15,2013-09-27 16:33:00,
2013-09-27 11:34:00,71.5,53.5,29.85,ESE,122,9.0,15.0,53,0.00,,,0.00,0,Wunderground v.1.15,2013-09-27 16:34:00,
2013-09-27 11:38:00,71.5,53.5,29.85,SSE,159,9.0,15.0,53,0.00,,,0.00,0,Wunderground v.1.15,2013-09-27 16:38:00,
2013-09-27 11:39:00,71.5,53.5,29.85,SE,124,5.0,15.0,53,0.00,,,0.00,0,Wunderground v.1.15,2013-09-27 16:39:00,
2013-09-27 11:40:00,71.5,53.5,29.85,SE,141,6.0,15.0,53,0.00,,,0.00,0,Wunderground v.1.15,2013-09-27 16:40:00,
2013-09-27 11:42:00,71.5,53.5,29.85,SE,137,8.0,15.0,53,0.00,,,0.00,0,Wunderground v.1.15,2013-09-27 16:42:00,
2013-09-27 11:44:00,71.5,53.5,29.85,SSE,150,2.0,15.0,53,0.00,,,0.00,0,Wunderground v.1.15,2013-09-27 16:44:00,
2013-09-27 11:45:00,71.5,53.5,29.84,South,179,3.0,15.0,53,0.00,,,0.00,0,Wunderground v.1.15,2013-09-27 16:45:00,
2013-09-27 11:46:00,71.5,53.5,29.84,SE,141,6.0,15.0,53,0.00,,,0.00,0,Wunderground v.1.15,2013-09-27 16:46:00,
2013-09-27 11:48:00,71.6,53.6,29.85,SE,137,9.0,15.0,53,0.00,,,0.00,0,Wunderground v.1.15,2013-09-27 16:48:00,
2013-09-27 11:49:00,71.6,53.6,29.84,SSE,156,8.0,15.0,53,0.00,,,0.00,0,Wunderground v.1.15,2013-09-27 16:49:00,
2013-09-27 11:50:00,71.6,53.6,29.84,SE,141,4.0,15.0,53,0.00,,,0.00,0,Wunderground v.1.15,2013-09-27 16:50:00,
2013-09-27 11:51:00,71.7,54.2,29.84,SE,141,7.0,15.0,54,0.00,,,0.00,0,Wunderground v.1.15,2013-09-27 16:51:00,
2013-09-27 11:54:00,71.9,53.8,29.84,SE,142,6.0,15.0,53,0.00,,,0.00,0,Wunderground v.1.15,2013-09-27 16:54:00,
2013-09-27 11:55:00,72.0,53.9,29.84,SE,143,6.0,15.0,53,0.00,,,0.00,0,Wunderground v.1.15,2013-09-27 16:55:00,
2013-09-27 11:57:00,72.2,54.1,29.84,SSE,151,7.0,15.0,53,0.00,,,0.00,0,Wunderground v.1.15,2013-09-27 16:57:00,
2013-09-27 11:58:00,72.3,54.2,29.84,SE,145,6.0,15.0,53,0.00,,,0.00,0,Wunderground v.1.15,2013-09-27 16:58:00,
2013-09-27 12:02:00,72.6,54.0,29.84,SSE,167,6.0,15.0,52,0.00,,,0.00,0,Wunderground v.1.15,2013-09-27 17:02:00,
2013-09-27 12:03:00,72.6,54.0,29.84,SE,128,8.0,15.0,52,0.00,,,0.00,0,Wunderground v.1.15,2013-09-27 17:03:00,
2013-09-27 12:04:00,72.7,54.1,29.84,SE,138,3.0,15.0,52,0.00,,,0.00,0,Wunderground v.1.15,2013-09-27 17:04:00,
2013-09-27 12:07:00,72.9,54.2,29.84,SE,127,11.0,15.0,52,0.00,,,0.00,0,Wunderground v.1.15,2013-09-27 17:07:00,
2013-09-27 12:08:00,73.0,53.8,29.84,SE,135,5.0,15.0,51,0.00,,,0.00,0,Wunderground v.1.15,2013-09-27 17:08:00,
2013-09-27 12:09:00,73.0,53.8,29.84,SSE,149,6.0,15.0,51,0.00,,,0.00,0,Wunderground v.1.15,2013-09-27 17:09:00,
2013-09-27 12:10:00,73.1,53.9,29.84,SE,124,3.0,15.0,51,0.00,,,0.00,0,Wunderground v.1.15,2013-09-27 17:10:00,
2013-09-27 12:11:00,73.2,54.0,29.83,SE,140,2.0,15.0,51,0.00,,,0.00,0,Wunderground v.1.15,2013-09-27 17:11:00,
2013-09-27 12:15:00,73.3,53.5,29.83,SE,140,9.0,15.0,50,0.00,,,0.00,0,Wunderground v.1.15,2013-09-27 17:15:00,
2013-09-27 12:16:00,73.3,53.5,29.83,SE,141,8.0,15.0,50,0.00,,,0.00,0,Wunderground v.1.15,2013-09-27 17:16:00,
2013-09-27 12:19:00,73.3,53.5,29.83,East,87,3.0,15.0,50,0.00,,,0.00,0,Wunderground v.1.15,2013-09-27 17:19:00,
2013-09-27 12:20:00,73.3,53.5,29.83,SE,144,9.0,15.0,50,0.00,,,0.00,0,Wunderground v.1.15,2013-09-27 17:20:00,
2013-09-27 12:21:00,73.3,53.5,29.83,SE,134,8.0,15.0,50,0.00,,,0.00,0,Wunderground v.1.15,2013-09-27 17:21:00,
2013-09-27 12:24:00,73.4,53.6,29.83,SE,140,7.0,15.0,50,0.00,,,0.00,0,Wunderground v.1.15,2013-09-27 17:24:00,
2013-09-27 12:26:00,73.4,53.6,29.82,SE,131,13.0,15.0,50,0.00,,,0.00,0,Wunderground v.1.15,2013-09-27 17:26:00,
2013-09-27 12:27:00,73.4,53.6,29.82,ESE,113,2.0,15.0,50,0.00,,,0.00,0,Wunderground v.1.15,2013-09-27 17:27:00,
2013-09-27 12:29:00,73.5,53.7,29.82,SE,138,7.0,15.0,50,0.00,,,0.00,0,Wunderground v.1.15,2013-09-27 17:29:00,
2013-09-27 12:30:00,73.5,53.7,29.82,SE,137,14.0,15.0,50,0.00,,,0.00,0,Wunderground v.1.15,2013-09-27 17:30:00,
2013-09-27 12:32:00,73.5,53.2,29.82,SE,137,9.0,15.0,49,0.00,,,0.00,0,Wunderground v.1.15,2013-09-27 17:32:00,
2013-09-27 12:34:00,73.6,53.3,29.82,East,101,4.0,15.0,49,0.00,,,0.00,0,Wunderground v.1.15,2013-09-27 17:34:00,
2013-09-27 12:35:00,73.6,53.3,29.81,ESE,121,6.0,15.0,49,0.00,,,0.00,0,Wunderground v.1.15,2013-09-27 17:35:00,
2013-09-27 12:37:00,73.7,53.3,29.81,SE,145,8.0,15.0,49,0.00,,,0.00,0,Wunderground v.1.15,2013-09-27 17:37:00,
2013-09-27 12:39:00,73.7,53.3,29.81,East,93,3.0,15.0,49,0.00,,,0.00,0,Wunderground v.1.15,2013-09-27 17:39:00,
2013-09-27 12:44:00,73.7,53.3,29.81,SE,145,9.0,15.0,49,0.00,,,0.00,0,Wunderground v.1.15,2013-09-27 17:44:00,
2013-09-27 12:45:00,73.7,52.8,29.81,ESE,118,6.0,15.0,48,0.00,,,0.00,0,Wunderground v.1.15,2013-09-27 17:45:00,
2013-09-27 12:49:00,73.8,52.9,29.80,SE,127,4.0,15.0,48,0.00,,,0.00,0,Wunderground v.1.15,2013-09-27 17:49:00,
2013-09-27 12:50:00,73.8,52.9,29.81,SE,137,9.0,15.0,48,0.00,,,0.00,0,Wunderground v.1.15,2013-09-27 17:50:00,
2013-09-27 12:53:00,73.8,52.3,29.80,SE,136,6.0,15.0,47,0.00,,,0.00,0,Wunderground v.1.15,2013-09-27 17:53:00,
2013-09-27 12:56:00,73.8,52.9,29.80,ESE,120,7.0,15.0,48,0.00,,,0.00,0,Wunderground v.1.15,2013-09-27 17:56:00,
2013-09-27 12:57:00,73.9,53.0,29.80,SSE,148,3.0,15.0,48,0.00,,,0.00,0,Wunderground v.1.15,2013-09-27 17:57:00,
2013-09-27 12:59:00,73.8,52.9,29.79,ENE,66,4.0,15.0,48,0.00,,,0.00,0,Wunderground v.1.15,2013-09-27 17:59:00,
2013-09-27 13:00:00,73.7,53.3,29.79,ENE,77,4.0,15.0,49,0.00,,,0.00,0,Wunderground v.1.15,2013-09-27 18:00:00,
2013-09-27 13:02:00,73.6,53.3,29.79,East,95,2.0,15.0,49,0.00,,,0.00,0,Wunderground v.1.15,2013-09-27 18:02:00,
2013-09-27 13:06:00,73.2,53.4,29.80,SE,126,2.0,15.0,50,0.00,,,0.00,0,Wunderground v.1.15,2013-09-27 18:06:00,
2013-09-27 13:07:00,73.2,54.0,29.79,East,100,3.0,15.0,51,0.00,,,0.00,0,Wunderground v.1.15,2013-09-27 18:07:00,
2013-09-27 13:09:00,72.9,54.2,29.79,ESE,117,4.0,15.0,52,0.00,,,0.00,0,Wunderground v.1.15,2013-09-27 18:09:00,
2013-09-27 13:10:00,72.8,54.1,29.79,SE,124,3.0,15.0,52,0.00,,,0.00,0,Wunderground v.1.15,2013-09-27 18:10:00,
2013-09-27 13:13:00,72.6,54.5,29.79,SSE,166,2.0,15.0,53,0.00,,,0.00,0,Wunderground v.1.15,2013-09-27 18:13:00,
2013-09-27 13:14:00,72.6,54.5,29.79,ESE,116,5.0,15.0,53,0.00,,,0.00,0,Wunderground v.1.15,2013-09-27 18:14:00,
2013-09-27 13:18:00,72.8,54.1,29.80,SE,138,10.0,15.0,52,0.00,,,0.00,0,Wunderground v.1.15,2013-09-27 18:18:00,
2013-09-27 13:19:00,72.9,54.2,29.80,SSE,149,7.0,15.0,52,0.00,,,0.00,0,Wunderground v.1.15,2013-09-27 18:19:00,
2013-09-27 13:20:00,72.9,54.2,29.79,SSE,147,4.0,15.0,52,0.00,,,0.00,0,Wunderground v.1.15,2013-09-27 18:20:00,
2013-09-27 13:24:00,73.4,54.2,29.79,SE,142,10.0,15.0,51,0.00,,,0.00,0,Wunderground v.1.15,2013-09-27 18:24:00,
2013-09-27 13:25:00,73.4,54.2,29.79,SSE,148,7.0,15.0,51,0.00,,,0.00,0,Wunderground v.1.15,2013-09-27 18:25:00,
2013-09-27 13:26:00,73.6,54.4,29.79,SSE,151,9.0,15.0,51,0.00,,,0.00,0,Wunderground v.1.15,2013-09-27 18:26:00,
2013-09-27 13:28:00,73.9,54.1,29.79,SE,141,7.0,15.0,50,0.00,,,0.00,0,Wunderground v.1.15,2013-09-27 18:28:00,
2013-09-27 13:29:00,74.0,54.2,29.79,ESE,110,6.0,15.0,50,0.00,,,0.00,0,Wunderground v.1.15,2013-09-27 18:29:00,
2013-09-27 13:34:00,74.8,54.4,29.79,SSE,148,8.0,15.0,49,0.00,,,0.00,0,Wunderground v.1.15,2013-09-27 18:34:00,
2013-09-27 13:35:00,75.0,54.0,29.79,SE,137,10.0,15.0,48,0.00,,,0.00,0,Wunderground v.1.15,2013-09-27 18:35:00,
2013-09-27 13:36:00,75.2,53.6,29.79,SE,129,11.0,15.0,47,0.00,,,0.00,0,Wunderground v.1.15,2013-09-27 18:36:00,
2013-09-27 13:37:00,75.3,53.7,29.79,SSE,154,10.0,15.0,47,0.00,,,0.00,0,Wunderground v.1.15,2013-09-27 18:37:00,
2013-09-27 13:39:00,75.9,53.6,29.79,South,190,5.0,15.0,46,0.00,,,0.00,0,Wunderground v.1.15,2013-09-27 18:39:00,
2013-09-27 13:40:00,76.1,53.8,29.79,SSE,147,6.0,15.0,46,0.00,,,0.00,0,Wunderground v.1.15,2013-09-27 18:40:00,
2013-09-27 13:44:00,76.9,52.7,29.79,SE,146,8.0,15.0,43,0.00,,,0.00,0,Wunderground v.1.15,2013-09-27 18:44:00,
2013-09-27 13:46:00,77.2,52.3,29.79,SE,132,7.0,15.0,42,0.00,,,0.00,0,Wunderground v.1.15,2013-09-27 18:46:00,
2013-09-27 13:47:00,77.3,52.4,29.79,SE,144,8.0,15.0,42,0.00,,,0.00,0,Wunderground v.1.15,2013-09-27 18:47:00,
2013-09-27 13:49:00,77.6,52.0,29.78,SSE,147,11.0,15.0,41,0.00,,,0.00,0,Wunderground v.1.15,2013-09-27 18:49:00,
2013-09-27 13:51:00,77.7,52.1,29.79,SE,140,6.0,15.0,41,0.00,,,0.00,0,Wunderground v.1.15,2013-09-27 18:51:00,
2013-09-27 13:52:00,77.7,52.1,29.79,SSE,161,10.0,15.0,41,0.00,,,0.00,0,Wunderground v.1.15,2013-09-27 18:52:00,
2013-09-27 13:53:00,77.7,52.1,29.79,SE,135,9.0,15.0,41,0.00,,,0.00,0,Wunderground v.1.15,2013-09-27 18:53:00,
2013-09-27 13:55:00,77.8,52.2,29.78,SE,143,10.0,15.0,41,0.00,,,0.00,0,Wunderground v.1.15,2013-09-27 18:55:00,
2013-09-27 13:56:00,77.9,51.6,29.78,South,169,13.0,15.0,40,0.00,,,0.00,0,Wunderground v.1.15,2013-09-27 18:56:00,
2013-09-27 13:57:00,78.0,52.4,29.79,SE,141,7.0,15.0,41,0.00,,,0.00,0,Wunderground v.1.15,2013-09-27 18:57:00,
2013-09-27 13:58:00,78.1,52.5,29.79,SE,133,5.0,15.0,41,0.00,,,0.00,0,Wunderground v.1.15,2013-09-27 18:58:00,
2013-09-27 14:03:00,78.6,51.6,29.78,SE,144,5.0,18.0,39,0.00,,,0.00,0,Wunderground v.1.15,2013-09-27 19:03:00,
2013-09-27 14:04:00,78.6,51.6,29.78,SE,136,14.0,18.0,39,0.00,,,0.00,0,Wunderground v.1.15,2013-09-27 19:04:00,
2013-09-27 14:05:00,78.7,51.0,29.78,SE,133,12.0,18.0,38,0.00,,,0.00,0,Wunderground v.1.15,2013-09-27 19:05:00,
2013-09-27 14:06:00,78.6,50.9,29.78,SSE,147,12.0,18.0,38,0.00,,,0.00,0,Wunderground v.1.15,2013-09-27 19:06:00,
2013-09-27 14:07:00,78.6,50.9,29.78,ESE,119,12.0,18.0,38,0.00,,,0.00,0,Wunderground v.1.15,2013-09-27 19:07:00,
2013-09-27 14:11:00,78.4,52.1,29.78,SE,144,11.0,15.0,40,0.00,,,0.00,0,Wunderground v.1.15,2013-09-27 19:11:00,
2013-09-27 14:12:00,78.4,51.4,29.77,ESE,104,11.0,15.0,39,0.00,,,0.00,0,Wunderground v.1.15,2013-09-27 19:12:00,
2013-09-27 14:13:00,78.5,51.5,29.77,SSE,153,8.0,15.0,39,0.00,,,0.00,0,Wunderground v.1.15,2013-09-27 19:13:00,
2013-09-27 14:15:00,78.7,51.7,29.77,ESE,113,6.0,15.0,39,0.00,,,0.00,0,Wunderground v.1.15,2013-09-27 19:15:00,
2013-09-27 14:16:00,78.8,51.0,29.77,SE,143,10.0,15.0,38,0.00,,,0.00,0,Wunderground v.1.15,2013-09-27 19:16:00,
2013-09-27 14:19:00,79.0,51.9,29.77,ESE,116,6.0,15.0,39,0.00,,,0.00,0,Wunderground v.1.15,2013-09-27 19:19:00,
2013-09-27 14:21:00,79.2,51.4,29.76,ESE,119,8.0,15.0,38,0.00,,,0.00,0,Wunderground v.1.15,2013-09-27 19:21:00,
2013-09-27 14:22:00,79.3,51.5,29.76,ESE,110,9.0,15.0,38,0.00,,,0.00,0,Wunderground v.1.15,2013-09-27 19:22:00,
2013-09-27 14:24:00,79.3,51.5,29.76,East,92,8.0,15.0,38,0.00,,,0.00,0,Wunderground v.1.15,2013-09-27 19:24:00,
2013-09-27 14:27:00,79.4,51.6,29.76,ESE,122,12.0,15.0,38,0.00,,,0.00,0,Wunderground v.1.15,2013-09-27 19:27:00,
2013-09-27 14:30:00,79.4,51.6,29.75,SE,141,17.0,17.0,38,0.00,,,0.00,0,Wunderground v.1.15,2013-09-27 19:30:00,
2013-09-27 14:31:00,79.4,51.6,29.76,SE,142,17.0,17.0,38,0.00,,,0.00,0,Wunderground v.1.15,2013-09-27 19:31:00,
2013-09-27 14:33:00,79.4,51.6,29.76,SSE,148,10.0,17.0,38,0.00,,,0.00,0,Wunderground v.1.15,2013-09-27 19:33:00,
2013-09-27 14:34:00,79.4,51.6,29.76,SSE,148,21.0,21.0,38,0.00,,,0.00,0,Wunderground v.1.15,2013-09-27 19:34:00,
2013-09-27 14:37:00,79.5,50.9,29.76,SE,135,8.0,21.0,37,0.00,,,0.00,0,Wunderground v.1.15,2013-09-27 19:37:00,
2013-09-27 14:40:00,79.5,50.9,29.76,SSE,164,15.0,15.0,37,0.00,,,0.00,0,Wunderground v.1.15,2013-09-27 19:40:00,
2013-09-27 14:41:00,79.5,51.7,29.76,SSE,149,9.0,15.0,38,0.00,,,0.00,0,Wunderground v.1.15,2013-09-27 19:41:00,
2013-09-27 14:42:00,79.6,51.0,29.76,SE,139,8.0,15.0,37,0.00,,,0.00,0,Wunderground v.1.15,2013-09-27 19:42:00,
2013-09-27 14:43:00,79.7,51.8,29.76,ESE,123,5.0,15.0,38,0.00,,,0.00,0,Wunderground v.1.15,2013-09-27 19:43:00,
2013-09-27 14:45:00,79.9,52.0,29.76,SSE,167,9.0,15.0,38,0.00,,,0.00,0,Wunderground v.1.15,2013-09-27 19:45:00,
2013-09-27 14:47:00,79.9,51.3,29.76,SE,130,10.0,15.0,37,0.00,,,0.00,0,Wunderground v.1.15,2013-09-27 19:47:00,
2013-09-27 14:48:00,79.9,49.8,29.76,SE,136,14.0,15.0,35,0.00,,,0.00,0,Wunderground v.1.15,2013-09-27 19:48:00,
2013-09-27 14:51:00,80.1,50.0,29.76,SE,141,18.0,18.0,35,0.00,,,0.00,0,Wunderground v.1.15,2013-09-27 19:51:00,
2013-09-27 14:52:00,80.0,49.9,29.76,SSE,156,9.0,18.0,35,0.00,,,0.00,0,Wunderground v.1.15,2013-09-27 19:52:00,
2013-09-27 14:54:00,80.1,50.0,29.77,South,169,17.0,18.0,35,0.00,,,0.00,0,Wunderground v.1.15,2013-09-27 19:54:00,
2013-09-27 14:57:00,80.2,50.1,29.77,South,169,10.0,18.0,35,0.00,,,0.00,0,Wunderground v.1.15,2013-09-27 19:57:00,
2013-09-27 14:58:00,80.1,50.0,29.77,South,172,9.0,18.0,35,0.00,,,0.00,0,Wunderground v.1.15,2013-09-27 19:58:00,
2013-09-27 15:00:00,80.1,50.0,29.77,SSE,163,11.0,15.0,35,0.00,,,0.00,0,Wunderground v.1.15,2013-09-27 20:00:00,
2013-09-27 15:02:00,80.2,50.1,29.77,SE,133,7.0,15.0,35,0.00,,,0.00,0,Wunderground v.1.15,2013-09-27 20:02:00,
2013-09-27 15:03:00,80.2,49.3,29.77,South,179,8.0,15.0,34,0.00,,,0.00,0,Wunderground v.1.15,2013-09-27 20:03:00,
2013-09-27 15:04:00,80.2,50.1,29.77,SE,131,4.0,15.0,35,0.00,,,0.00,0,Wunderground v.1.15,2013-09-27 20:04:00,
2013-09-27 15:05:00,80.2,49.3,29.77,ESE,121,15.0,15.0,34,0.00,,,0.00,0,Wunderground v.1.15,2013-09-27 20:05:00,
2013-09-27 15:08:00,80.3,50.1,29.77,South,172,9.0,15.0,35,0.00,,,0.00,0,Wunderground v.1.15,2013-09-27 20:08:00,
2013-09-27 15:09:00,80.4,50.2,29.77,SSE,156,10.0,15.0,35,0.00,,,0.00,0,Wunderground v.1.15,2013-09-27 20:09:00,
2013-09-27 15:12:00,80.5,49.5,29.77,SE,139,10.0,15.0,34,0.00,,,0.00,0,Wunderground v.1.15,2013-09-27 20:12:00,
2013-09-27 15:13:00,80.4,49.5,29.77,SSE,163,9.0,15.0,34,0.00,,,0.00,0,Wunderground v.1.15,2013-09-27 20:13:00,
2013-09-27 15:14:00,80.4,50.2,29.77,South,173,11.0,15.0,35,0.00,,,0.00,0,Wunderground v.1.15,2013-09-27 20:14:00,
2013-09-27 15:16:00,80.5,49.5,29.78,SE,145,16.0,16.0,34,0.00,,,0.00,0,Wunderground v.1.15,2013-09-27 20:16:00,
2013-09-27 15:19:00,80.5,50.3,29.77,ESE,119,8.0,16.0,35,0.00,,,0.00,0,Wunderground v.1.15,2013-09-27 20:19:00,
2013-09-27 15:20:00,80.5,50.3,29.77,SE,135,9.0,15.0,35,0.00,,,0.00,0,Wunderground v.1.15,2013-09-27 20:20:00,
2013-09-27 15:21:00,80.6,50.4,29.77,SE,141,9.0,15.0,35,0.00,,,0.00,0,Wunderground v.1.15,2013-09-27 20:21:00,
2013-09-27 15:25:00,80.6,50.4,29.77,SE,142,10.0,15.0,35,0.00,,,0.00,0,Wunderground v.1.15,2013-09-27 20:25:00,
2013-09-27 15:26:00,80.6,49.6,29.78,SE,134,5.0,15.0,34,0.00,,,0.00,0,Wunderground v.1.15,2013-09-27 20:26:00,
2013-09-27 15:28:00,80.6,50.4,29.78,ESE,117,5.0,15.0,35,0.00,,,0.00,0,Wunderground v.1.15,2013-09-27 20:28:00,
2013-09-27 15:29:00,80.6,50.4,29.77,SE,128,17.0,17.0,35,0.00,,,0.00,0,Wunderground v.1.15,2013-09-27 20:29:00,
2013-09-27 15:30:00,80.6,50.4,29.77,SSE,150,12.0,15.0,35,0.00,,,0.00,0,Wunderground v.1.15,2013-09-27 20:30:00,
2013-09-27 15:34:00,80.7,50.5,29.77,SE,142,12.0,15.0,35,0.00,,,0.00,0,Wunderground v.1.15,2013-09-27 20:34:00,
2013-09-27 15:35:00,80.7,50.5,29.78,SE,127,15.0,15.0,35,0.00,,,0.00,0,Wunderground v.1.15,2013-09-27 20:35:00,
2013-09-27 15:36:00,80.7,50.5,29.77,SE,144,12.0,15.0,35,0.00,,,0.00,0,Wunderground v.1.15,2013-09-27 20:36:00,
2013-09-27 15:37:00,80.7,50.5,29.78,SE,129,7.0,15.0,35,0.00,,,0.00,0,Wunderground v.1.15,2013-09-27 20:37:00,
2013-09-27 15:39:00,80.8,49.8,29.78,SE,134,11.0,19.0,34,0.00,,,0.00,0,Wunderground v.1.15,2013-09-27 20:39:00,
2013-09-27 15:41:00,80.8,50.6,29.77,SSE,156,13.0,15.0,35,0.00,,,0.00,0,Wunderground v.1.15,2013-09-27 20:41:00,
2013-09-27 15:43:00,80.8,49.8,29.77,ESE,121,14.0,15.0,34,0.00,,,0.00,0,Wunderground v.1.15,2013-09-27 20:43:00,
2013-09-27 15:44:00,80.8,49.8,29.77,SE,124,16.0,16.0,34,0.00,,,0.00,0,Wunderground v.1.15,2013-09-27 20:44:00,
2013-09-27 15:47:00,80.7,49.7,29.77,SSE,159,12.0,16.0,34,0.00,,,0.00,0,Wunderground v.1.15,2013-09-27 20:47:00,
2013-09-27 15:48:00,80.7,49.7,29.78,SE,139,10.0,16.0,34,0.00,,,0.00,0,Wunderground v.1.15,2013-09-27 20:48:00,
2013-09-27 15:50:00,80.7,49.7,29.77,SE,125,9.0,15.0,34,0.00,,,0.00,0,Wunderground v.1.15,2013-09-27 20:50:00,
2013-09-27 15:52:00,80.7,49.7,29.77,SSW,193,8.0,15.0,34,0.00,,,0.00,0,Wunderground v.1.15,2013-09-27 20:52:00,
2013-09-27 15:53:00,80.7,49.7,29.77,SSE,160,8.0,15.0,34,0.00,,,0.00,0,Wunderground v.1.15,2013-09-27 20:53:00,
2013-09-27 15:54:00,80.7,49.7,29.77,South,179,9.0,15.0,34,0.00,,,0.00,0,Wunderground v.1.15,2013-09-27 20:54:00,
2013-09-27 15:57:00,80.7,50.5,29.77,SSE,166,8.0,15.0,35,0.00,,,0.00,0,Wunderground v.1.15,2013-09-27 20:57:00,
2013-09-27 15:58:00,80.7,50.5,29.77,SSE,163,12.0,15.0,35,0.00,,,0.00,0,Wunderground v.1.15,2013-09-27 20:58:00,
2013-09-27 16:00:00,80.7,50.5,29.77,SSE,166,11.0,15.0,35,0.00,,,0.00,0,Wunderground v.1.15,2013-09-27 21:00:00,
2013-09-27 16:02:00,80.7,50.5,29.77,SSE,149,16.0,16.0,35,0.00,,,0.00,0,Wunderground v.1.15,2013-09-27 21:02:00,
2013-09-27 16:03:00,80.6,50.4,29.77,SE,132,7.0,16.0,35,0.00,,,0.00,0,Wunderground v.1.15,2013-09-27 21:03:00,
2013-09-27 16:04:00,80.5,50.3,29.77,SE,136,10.0,16.0,35,0.00,,,0.00,0,Wunderground v.1.15,2013-09-27 21:04:00,
2013-09-27 16:07:00,80.4,50.2,29.77,SE,128,7.0,16.0,35,0.00,,,0.00,0,Wunderground v.1.15,2013-09-27 21:07:00,
2013-09-27 16:08:00,80.4,50.2,29.77,SE,138,13.0,16.0,35,0.00,,,0.00,0,Wunderground v.1.15,2013-09-27 21:08:00,
2013-09-27 16:10:00,80.4,51.0,29.77,SE,134,6.0,15.0,36,0.00,,,0.00,0,Wunderground v.1.15,2013-09-27 21:10:00,
2013-09-27 16:11:00,80.4,50.2,29.77,SE,145,9.0,15.0,35,0.00,,,0.00,0,Wunderground v.1.15,2013-09-27 21:11:00,
2013-09-27 16:16:00,80.4,51.0,29.77,SSE,152,7.0,18.0,36,0.00,,,0.00,0,Wunderground v.1.15,2013-09-27 21:16:00,
2013-09-27 16:17:00,80.4,51.0,29.76,SE,138,6.0,18.0,36,0.00,,,0.00,0,Wunderground v.1.15,2013-09-27 21:17:00,
2013-09-27 16:18:00,80.4,51.0,29.76,SE,139,5.0,18.0,36,0.00,,,0.00,0,Wunderground v.1.15,2013-09-27 21:18:00,
2013-09-27 16:21:00,80.4,51.0,29.77,SE,137,14.0,15.0,36,0.00,,,0.00,0,Wunderground v.1.15,2013-09-27 21:21:00,
2013-09-27 16:24:00,80.4,51.0,29.76,SE,142,6.0,15.0,36,0.00,,,0.00,0,Wunderground v.1.15,2013-09-27 21:24:00,
2013-09-27 16:25:00,80.4,51.0,29.77,South,171,6.0,15.0,36,0.00,,,0.00,0,Wunderground v.1.15,2013-09-27 21:25:00,
2013-09-27 16:26:00,80.4,51.0,29.77,SSE,161,3.0,15.0,36,0.00,,,0.00,0,Wunderground v.1.15,2013-09-27 21:26:00,
2013-09-27 16:28:00,80.5,51.1,29.76,SSE,148,7.0,15.0,36,0.00,,,0.00,0,Wunderground v.1.15,2013-09-27 21:28:00,
2013-09-27 16:29:00,80.5,51.1,29.77,SSE,164,10.0,15.0,36,0.00,,,0.00,0,Wunderground v.1.15,2013-09-27 21:29:00,
2013-09-27 16:31:00,80.6,50.4,29.76,South,172,12.0,15.0,35,0.00,,,0.00,0,Wunderground v.1.15,2013-09-27 21:31:00,
2013-09-27 16:34:00,80.7,49.7,29.76,SE,134,16.0,16.0,34,0.00,,,0.00,0,Wunderground v.1.15,2013-09-27 21:34:00,
2013-09-27 16:36:00,80.8,49.8,29.77,SSE,157,8.0,16.0,34,0.00,,,0.00,0,Wunderground v.1.15,2013-09-27 21:36:00,
2013-09-27 16:38:00,80.9,49.9,29.77,SSE,165,7.0,16.0,34,0.00,,,0.00,0,Wunderground v.1.15,2013-09-27 21:38:00,
2013-09-27 16:39:00,80.9,49.9,29.77,SE,134,17.0,17.0,34,0.00,,,0.00,0,Wunderground v.1.15,2013-09-27 21:39:00,
2013-09-27 16:40:00,80.9,49.1,29.77,SSE,152,6.0,15.0,33,0.00,,,0.00,0,Wunderground v.1.15,2013-09-27 21:40:00,
2013-09-27 16:41:00,80.9,49.1,29.78,SE,144,8.0,15.0,33,0.00,,,0.00,0,Wunderground v.1.15,2013-09-27 21:41:00,
2013-09-27 16:46:00,80.9,48.3,29.78,SE,139,7.0,15.0,32,0.00,,,0.00,0,Wunderground v.1.15,2013-09-27 21:46:00,
2013-09-27 16:48:00,80.8,49.0,29.78,SSE,162,8.0,15.0,33,0.00,,,0.00,0,Wunderground v.1.15,2013-09-27 21:48:00,
2013-09-27 16:53:00,80.8,48.2,29.78,SE,128,17.0,17.0,32,0.00,,,0.00,0,Wunderground v.1.15,2013-09-27 21:53:00,
2013-09-27 16:54:00,80.8,48.2,29.78,SE,138,9.0,17.0,32,0.00,,,0.00,0,Wunderground v.1.15,2013-09-27 21:54:00,
2013-09-27 16:55:00,80.9,48.3,29.78,SE,133,13.0,17.0,32,0.00,,,0.00,0,Wunderground v.1.15,2013-09-27 21:55:00,
2013-09-27 16:59:00,80.8,48.2,29.78,South,169,7.0,17.0,32,0.00,,,0.00,0,Wunderground v.1.15,2013-09-27 21:59:00,
2013-09-27 17:01:00,80.7,48.1,29.78,South,172,8.0,15.0,32,0.00,,,0.00,0,Wunderground v.1.15,2013-09-27 22:01:00,
2013-09-27 17:03:00,80.7,48.1,29.78,SE,140,9.0,15.0,32,0.00,,,0.00,0,Wunderground v.1.15,2013-09-27 22:03:00,
2013-09-27 17:05:00,80.7,48.1,29.78,South,169,13.0,15.0,32,0.00,,,0.00,0,Wunderground v.1.15,2013-09-27 22:05:00,
2013-09-27 17:08:00,80.6,48.0,29.78,SSE,161,6.0,15.0,32,0.00,,,0.00,0,Wunderground v.1.15,2013-09-27 22:08:00,
2013-09-27 17:09:00,80.6,48.0,29.78,SE,144,7.0,15.0,32,0.00,,,0.00,0,Wunderground v.1.15,2013-09-27 22:09:00,
2013-09-27 17:12:00,80.5,48.7,29.78,SSE,166,6.0,15.0,33,0.00,,,0.00,0,Wunderground v.1.15,2013-09-27 22:12:00,
2013-09-27 17:16:00,80.4,48.7,29.78,SSE,160,7.0,15.0,33,0.00,,,0.00,0,Wunderground v.1.15,2013-09-27 22:16:00,
2013-09-27 17:17:00,80.3,48.6,29.79,SSE,154,10.0,15.0,33,0.00,,,0.00,0,Wunderground v.1.15,2013-09-27 22:17:00,
2013-09-27 17:18:00,80.3,48.6,29.79,SE,130,10.0,15.0,33,0.00,,,0.00,0,Wunderground v.1.15,2013-09-27 22:18:00,
2013-09-27 17:23:00,80.1,49.2,29.78,SE,139,6.0,15.0,34,0.00,,,0.00,0,Wunderground v.1.15,2013-09-27 22:23:00,
2013-09-27 17:24:00,80.1,48.4,29.78,SSE,149,8.0,15.0,33,0.00,,,0.00,0,Wunderground v.1.15,2013-09-27 22:24:00,
2013-09-27 17:25:00,80.1,48.4,29.79,SSE,149,3.0,15.0,33,0.00,,,0.00,0,Wunderground v.1.15,2013-09-27 22:25:00,
2013-09-27 17:27:00,80.0,49.1,29.79,SSE,147,7.0,15.0,34,0.00,,,0.00,0,Wunderground v.1.15,2013-09-27 22:27:00,
2013-09-27 17:29:00,80.0,49.1,29.79,SE,135,6.0,15.0,34,0.00,,,0.00,0,Wunderground v.1.15,2013-09-27 22:29:00,
2013-09-27 17:30:00,79.9,49.0,29.78,SE,133,8.0,15.0,34,0.00,,,0.00,0,Wunderground v.1.15,2013-09-27 22:30:00,
2013-09-27 17:31:00,79.9,48.2,29.79,ESE,116,3.0,15.0,33,0.00,,,0.00,0,Wunderground v.1.15,2013-09-27 22:31:00,
2013-09-27 17:32:00,79.9,49.0,29.78,SE,136,9.0,15.0,34,0.00,,,0.00,0,Wunderground v.1.15,2013-09-27 22:32:00,
2013-09-27 17:35:00,79.8,48.9,29.78,SE,138,3.0,15.0,34,0.00,,,0.00,0,Wunderground v.1.15,2013-09-27 22:35:00,
2013-09-27 17:37:00,79.7,48.8,29.78,SE,136,5.0,15.0,34,0.00,,,0.00,0,Wunderground v.1.15,2013-09-27 22:37:00,
2013-09-27 17:39:00,79.6,48.8,29.79,SSE,149,8.0,15.0,34,0.00,,,0.00,0,Wunderground v.1.15,2013-09-27 22:39:00,
2013-09-27 17:41:00,79.5,48.7,29.78,ESE,109,6.0,15.0,34,0.00,,,0.00,0,Wunderground v.1.15,2013-09-27 22:41:00,
2013-09-27 17:43:00,79.5,48.7,29.78,ESE,119,7.0,15.0,34,0.00,,,0.00,0,Wunderground v.1.15,2013-09-27 22:43:00,
2013-09-27 17:44:00,79.5,48.7,29.79,SSE,153,4.0,15.0,34,0.00,,,0.00,0,Wunderground v.1.15,2013-09-27 22:44:00,
2013-09-27 17:46:00,79.4,48.6,29.79,SSE,157,5.0,15.0,34,0.00,,,0.00,0,Wunderground v.1.15,2013-09-27 22:46:00,
2013-09-27 17:47:00,79.4,48.6,29.79,SE,138,5.0,15.0,34,0.00,,,0.00,0,Wunderground v.1.15,2013-09-27 22:47:00,
2013-09-27 17:48:00,79.3,48.5,29.78,SE,143,10.0,15.0,34,0.00,,,0.00,0,Wunderground v.1.15,2013-09-27 22:48:00,
2013-09-27 17:49:00,79.3,48.5,29.78,SE,132,9.0,15.0,34,0.00,,,0.00,0,Wunderground v.1.15,2013-09-27 22:49:00,
2013-09-27 17:52:00,79.2,49.2,29.78,SE,140,7.0,15.0,35,0.00,,,0.00,0,Wunderground v.1.15,2013-09-27 22:52:00,
2013-09-27 17:53:00,79.1,49.1,29.78,ESE,119,4.0,15.0,35,0.00,,,0.00,0,Wunderground v.1.15,2013-09-27 22:53:00,
2013-09-27 17:55:00,79.1,49.1,29.79,SSE,148,7.0,15.0,35,0.00,,,0.00,0,Wunderground v.1.15,2013-09-27 22:55:00,
2013-09-27 17:56:00,79.0,49.0,29.78,East,101,5.0,15.0,35,0.00,,,0.00,0,Wunderground v.1.15,2013-09-27 22:56:00,
2013-09-27 17:58:00,78.9,48.9,29.78,SE,145,3.0,15.0,35,0.00,,,0.00,0,Wunderground v.1.15,2013-09-27 22:58:00,
2013-09-27 18:00:00,78.8,48.8,29.79,SE,142,9.0,15.0,35,0.00,,,0.00,0,Wunderground v.1.15,2013-09-27 23:00:00,
2013-09-27 18:01:00,78.8,48.8,29.78,SE,135,3.0,15.0,35,0.00,,,0.00,0,Wunderground v.1.15,2013-09-27 23:01:00,
2013-09-27 18:02:00,78.8,48.8,29.78,SSE,149,9.0,15.0,35,0.00,,,0.00,0,Wunderground v.1.15,2013-09-27 23:02:00,
2013-09-27 18:03:00,78.7,48.7,29.78,SE,138,11.0,15.0,35,0.00,,,0.00,0,Wunderground v.1.15,2013-09-27 23:03:00,
2013-09-27 18:07:00,78.6,48.7,29.78,SE,136,14.0,15.0,35,0.00,,,0.00,0,Wunderground v.1.15,2013-09-27 23:07:00,
2013-09-27 18:08:00,78.6,48.7,29.79,SE,143,9.0,15.0,35,0.00,,,0.00,0,Wunderground v.1.15,2013-09-27 23:08:00,
2013-09-27 18:12:00,78.6,48.7,29.79,SSE,152,7.0,15.0,35,0.00,,,0.00,0,Wunderground v.1.15,2013-09-27 23:12:00,
2013-09-27 18:13:00,78.6,48.7,29.79,SSE,162,4.0,15.0,35,0.00,,,0.00,0,Wunderground v.1.15,2013-09-27 23:13:00,
2013-09-27 18:14:00,78.5,48.6,29.78,SE,144,7.0,15.0,35,0.00,,,0.00,0,Wunderground v.1.15,2013-09-27 23:14:00,
2013-09-27 18:16:00,78.4,48.5,29.79,SE,140,8.0,15.0,35,0.00,,,0.00,0,Wunderground v.1.15,2013-09-27 23:16:00,
2013-09-27 18:18:00,78.4,48.5,29.79,SSE,167,6.0,15.0,35,0.00,,,0.00,0,Wunderground v.1.15,2013-09-27 23:18:00,
2013-09-27 18:22:00,78.2,49.1,29.79,SE,130,3.0,15.0,36,0.00,,,0.00,0,Wunderground v.1.15,2013-09-27 23:22:00,
2013-09-27 18:24:00,78.1,49.0,29.79,SE,139,10.0,15.0,36,0.00,,,0.00,0,Wunderground v.1.15,2013-09-27 23:24:00,
2013-09-27 18:25:00,78.1,49.0,29.79,South,173,8.0,15.0,36,0.00,,,0.00,0,Wunderground v.1.15,2013-09-27 23:25:00,
2013-09-27 18:26:00,78.1,49.0,29.79,SE,144,8.0,15.0,36,0.00,,,0.00,0,Wunderground v.1.15,2013-09-27 23:26:00,
2013-09-27 18:27:00,78.1,49.0,29.79,ESE,117,5.0,15.0,36,0.00,,,0.00,0,Wunderground v.1.15,2013-09-27 23:27:00,
2013-09-27 18:28:00,78.1,49.7,29.80,SE,127,8.0,15.0,37,0.00,,,0.00,0,Wunderground v.1.15,2013-09-27 23:28:00,
2013-09-27 18:31:00,78.0,49.6,29.79,SSE,149,6.0,15.0,37,0.00,,,0.00,0,Wunderground v.1.15,2013-09-27 23:31:00,
2013-09-27 18:33:00,77.9,49.5,29.79,SSE,156,8.0,15.0,37,0.00,,,0.00,0,Wunderground v.1.15,2013-09-27 23:33:00,
2013-09-27 18:34:00,77.9,49.5,29.79,SSE,150,5.0,15.0,37,0.00,,,0.00,0,Wunderground v.1.15,2013-09-27 23:34:00,
2013-09-27 18:38:00,77.7,50.1,29.79,SSE,167,7.0,15.0,38,0.00,,,0.00,0,Wunderground v.1.15,2013-09-27 23:38:00,
2013-09-27 18:39:00,77.7,50.1,29.79,SE,143,5.0,15.0,38,0.00,,,0.00,0,Wunderground v.1.15,2013-09-27 23:39:00,
2013-09-27 18:40:00,77.7,50.1,29.79,SSE,155,4.0,15.0,38,0.00,,,0.00,0,Wunderground v.1.15,2013-09-27 23:40:00,
2013-09-27 18:41:00,77.6,50.0,29.79,SE,131,8.0,15.0,38,0.00,,,0.00,0,Wunderground v.1.15,2013-09-27 23:41:00,
2013-09-27 18:45:00,77.5,49.9,29.79,SSE,150,9.0,15.0,38,0.00,,,0.00,0,Wunderground v.1.15,2013-09-27 23:45:00,
2013-09-27 18:46:00,77.5,49.9,29.79,SE,143,6.0,15.0,38,0.00,,,0.00,0,Wunderground v.1.15,2013-09-27 23:46:00,
2013-09-27 18:47:00,77.6,50.0,29.79,SSE,152,7.0,15.0,38,0.00,,,0.00,0,Wunderground v.1.15,2013-09-27 23:47:00,
2013-09-27 18:48:00,77.5,49.9,29.79,ESE,113,4.0,15.0,38,0.00,,,0.00,0,Wunderground v.1.15,2013-09-27 23:48:00,
2013-09-27 18:50:00,77.5,49.9,29.79,SE,127,6.0,15.0,38,0.00,,,0.00,0,Wunderground v.1.15,2013-09-27 23:50:00,
2013-09-27 18:53:00,77.4,49.8,29.79,SE,124,4.0,15.0,38,0.00,,,0.00,0,Wunderground v.1.15,2013-09-27 23:53:00,
2013-09-27 18:54:00,77.3,49.7,29.79,SSE,154,6.0,15.0,38,0.00,,,0.00,0,Wunderground v.1.15,2013-09-27 23:54:00,
2013-09-27 18:56:00,77.2,49.6,29.79,ESE,120,3.0,15.0,38,0.00,,,0.00,0,Wunderground v.1.15,2013-09-27 23:56:00,
2013-09-27 19:00:00,77.1,50.2,29.79,SE,136,8.0,15.0,39,0.00,,,0.00,0,Wunderground v.1.15,2013-09-28 00:00:00,
2013-09-27 19:01:00,77.1,49.5,29.78,South,169,3.0,15.0,38,0.00,,,0.00,0,Wunderground v.1.15,2013-09-28 00:01:00,
2013-09-27 19:03:00,77.0,50.1,29.79,SSE,163,6.0,15.0,39,0.00,,,0.00,0,Wunderground v.1.15,2013-09-28 00:03:00,
2013-09-27 19:05:00,77.0,50.1,29.78,SE,125,5.0,15.0,39,0.00,,,0.00,0,Wunderground v.1.15,2013-09-28 00:05:00,
2013-09-27 19:06:00,77.0,50.1,29.79,SE,135,14.0,15.0,39,0.00,,,0.00,0,Wunderground v.1.15,2013-09-28 00:06:00,
2013-09-27 19:08:00,76.9,50.1,29.78,SE,138,14.0,15.0,39,0.00,,,0.00,0,Wunderground v.1.15,2013-09-28 00:08:00,
2013-09-27 19:09:00,76.9,50.1,29.79,SSE,150,7.0,15.0,39,0.00,,,0.00,0,Wunderground v.1.15,2013-09-28 00:09:00,
2013-09-27 19:11:00,76.9,50.1,29.79,SSE,147,4.0,15.0,39,0.00,,,0.00,0,Wunderground v.1.15,2013-09-28 00:11:00,
2013-09-27 19:12:00,76.9,50.1,29.78,SE,145,10.0,15.0,39,0.00,,,0.00,0,Wunderground v.1.15,2013-09-28 00:12:00,
2013-09-27 19:17:00,76.8,50.0,29.78,SE,143,8.0,15.0,39,0.00,,,0.00,0,Wunderground v.1.15,2013-09-28 00:17:00,
2013-09-27 19:18:00,76.7,49.9,29.79,SE,134,9.0,15.0,39,0.00,,,0.00,0,Wunderground v.1.15,2013-09-28 00:18:00,
2013-09-27 19:19:00,76.7,50.6,29.78,ESE,110,5.0,15.0,40,0.00,,,0.00,0,Wunderground v.1.15,2013-09-28 00:19:00,
2013-09-27 19:21:00,76.6,50.5,29.79,ESE,119,2.0,15.0,40,0.00,,,0.00,0,Wunderground v.1.15,2013-09-28 00:21:00,
2013-09-27 19:22:00,76.6,50.5,29.78,SE,137,6.0,15.0,40,0.00,,,0.00,0,Wunderground v.1.15,2013-09-28 00:22:00,
2013-09-27 19:24:00,76.5,50.4,29.78,SE,137,8.0,15.0,40,0.00,,,0.00,0,Wunderground v.1.15,2013-09-28 00:24:00,
2013-09-27 19:26:00,76.4,50.3,29.78,SSE,152,4.0,15.0,40,0.00,,,0.00,0,Wunderground v.1.15,2013-09-28 00:26:00,
2013-09-27 19:27:00,76.3,50.9,29.79,East,101,4.0,15.0,41,0.00,,,0.00,0,Wunderground v.1.15,2013-09-28 00:27:00,
2013-09-27 19:29:00,76.2,50.8,29.78,SSE,157,8.0,15.0,41,0.00,,,0.00,0,Wunderground v.1.15,2013-09-28 00:29:00,
2013-09-27 19:32:00,76.0,50.6,29.78,SSE,159,8.0,15.0,41,0.00,,,0.00,0,Wunderground v.1.15,2013-09-28 00:32:00,
2013-09-27 19:34:00,76.0,51.2,29.78,SE,130,7.0,15.0,42,0.00,,,0.00,0,Wunderground v.1.15,2013-09-28 00:34:00,
2013-09-27 19:36:00,75.9,51.2,29.78,SE,140,5.0,15.0,42,0.00,,,0.00,0,Wunderground v.1.15,2013-09-28 00:36:00,
2013-09-27 19:37:00,75.9,51.2,29.79,ESE,116,3.0,15.0,42,0.00,,,0.00,0,Wunderground v.1.15,2013-09-28 00:37:00,
2013-09-27 19:38:00,75.9,51.2,29.78,SSE,152,7.0,15.0,42,0.00,,,0.00,0,Wunderground v.1.15,2013-09-28 00:38:00,
2013-09-27 19:39:00,75.9,51.2,29.78,ESE,106,3.0,15.0,42,0.00,,,0.00,0,Wunderground v.1.15,2013-09-28 00:39:00,
2013-09-27 19:42:00,75.9,51.2,29.78,SE,133,4.0,15.0,42,0.00,,,0.00,0,Wunderground v.1.15,2013-09-28 00:42:00,
2013-09-27 19:44:00,75.9,51.2,29.79,ESE,109,2.0,15.0,42,0.00,,,0.00,0,Wunderground v.1.15,2013-09-28 00:44:00,
2013-09-27 19:45:00,75.8,51.7,29.79,SE,132,7.0,15.0,43,0.00,,,0.00,0,Wunderground v.1.15,2013-09-28 00:45:00,
2013-09-27 19:48:00,75.8,51.7,29.79,SE,130,6.0,15.0,43,0.00,,,0.00,0,Wunderground v.1.15,2013-09-28 00:48:00,
2013-09-27 19:50:00,75.8,51.7,29.79,SSE,152,7.0,15.0,43,0.00,,,0.00,0,Wunderground v.1.15,2013-09-28 00:50:00,
2013-09-27 19:51:00,75.8,51.7,29.79,ESE,113,4.0,15.0,43,0.00,,,0.00,0,Wunderground v.1.15,2013-09-28 00:51:00,
2013-09-27 19:53:00,75.8,51.7,29.79,SE,132,12.0,15.0,43,0.00,,,0.00,0,Wunderground v.1.15,2013-09-28 00:53:00,
2013-09-27 19:54:00,75.7,51.6,29.79,SSE,151,5.0,15.0,43,0.00,,,0.00,0,Wunderground v.1.15,2013-09-28 00:54:00,
2013-09-27 19:57:00,75.7,51.6,29.79,SE,142,8.0,15.0,43,0.00,,,0.00,0,Wunderground v.1.15,2013-09-28 00:57:00,
2013-09-27 19:58:00,75.7,51.6,29.79,East,80,5.0,15.0,43,0.00,,,0.00,0,Wunderground v.1.15,2013-09-28 00:58:00,
2013-09-27 19:59:00,75.7,51.6,29.79,SSE,155,9.0,15.0,43,0.00,,,0.00,0,Wunderground v.1.15,2013-09-28 00:59:00,
2013-09-27 20:00:00,75.7,51.6,29.79,SE,145,8.0,15.0,43,0.00,,,0.00,0,Wunderground v.1.15,2013-09-28 01:00:00,
2013-09-27 20:01:00,75.6,51.5,29.79,SE,145,13.0,15.0,43,0.00,,,0.00,0,Wunderground v.1.15,2013-09-28 01:01:00,
2013-09-27 20:05:00,75.6,51.5,29.79,SE,135,10.0,15.0,43,0.00,,,0.00,0,Wunderground v.1.15,2013-09-28 01:05:00,
2013-09-27 20:06:00,75.5,51.4,29.78,ESE,110,4.0,15.0,43,0.00,,,0.00,0,Wunderground v.1.15,2013-09-28 01:06:00,
2013-09-27 20:07:00,75.5,51.4,29.79,SE,141,5.0,15.0,43,0.00,,,0.00,0,Wunderground v.1.15,2013-09-28 01:07:00,
2013-09-27 20:10:00,75.4,51.3,29.79,SE,134,7.0,15.0,43,0.00,,,0.00,0,Wunderground v.1.15,2013-09-28 01:10:00,
2013-09-27 20:13:00,75.4,51.3,29.78,SE,137,6.0,15.0,43,0.00,,,0.00,0,Wunderground v.1.15,2013-09-28 01:13:00,
2013-09-27 20:14:00,75.4,52.0,29.79,ESE,107,6.0,15.0,44,0.00,,,0.00,0,Wunderground v.1.15,2013-09-28 01:14:00,
2013-09-27 20:15:00,75.3,51.3,29.79,ESE,114,2.0,15.0,43,0.00,,,0.00,0,Wunderground v.1.15,2013-09-28 01:15:00,
2013-09-27 20:16:00,75.3,51.9,29.79,SE,140,7.0,15.0,44,0.00,,,0.00,0,Wunderground v.1.15,2013-09-28 01:16:00,
2013-09-27 20:19:00,75.1,51.7,29.78,SSE,148,2.0,15.0,44,0.00,,,0.00,0,Wunderground v.1.15,2013-09-28 01:19:00,
2013-09-27 20:21:00,75.1,51.7,29.79,ESE,116,6.0,15.0,44,0.00,,,0.00,0,Wunderground v.1.15,2013-09-28 01:21:00,
2013-09-27 20:23:00,75.1,51.7,29.79,SSE,150,13.0,15.0,44,0.00,,,0.00,0,Wunderground v.1.15,2013-09-28 01:23:00,
2013-09-27 20:24:00,75.1,51.7,29.79,East,91,5.0,15.0,44,0.00,,,0.00,0,Wunderground v.1.15,2013-09-28 01:24:00,
2013-09-27 20:26:00,75.0,51.6,29.78,SE,141,7.0,15.0,44,0.00,,,0.00,0,Wunderground v.1.15,2013-09-28 01:26:00,
2013-09-27 20:28:00,74.9,51.5,29.79,SE,141,5.0,15.0,44,0.00,,,0.00,0,Wunderground v.1.15,2013-09-28 01:28:00,
2013-09-27 20:29:00,74.8,51.4,29.79,SE,141,7.0,15.0,44,0.00,,,0.00,0,Wunderground v.1.15,2013-09-28 01:29:00,
2013-09-27 20:30:00,74.8,51.4,29.79,SSE,148,11.0,15.0,44,0.00,,,0.00,0,Wunderground v.1.15,2013-09-28 01:30:00,
2013-09-27 20:34:00,74.7,51.3,29.78,SE,142,5.0,15.0,44,0.00,,,0.00,0,Wunderground v.1.15,2013-09-28 01:34:00,
2013-09-27 20:35:00,74.7,51.9,29.79,SE,145,8.0,15.0,45,0.00,,,0.00,0,Wunderground v.1.15,2013-09-28 01:35:00,
2013-09-27 20:38:00,74.7,51.3,29.79,SE,139,8.0,15.0,44,0.00,,,0.00,0,Wunderground v.1.15,2013-09-28 01:38:00,
2013-09-27 20:39:00,74.7,51.3,29.79,ESE,113,4.0,15.0,44,0.00,,,0.00,0,Wunderground v.1.15,2013-09-28 01:39:00,
2013-09-27 20:40:00,74.7,51.3,29.79,SE,134,4.0,15.0,44,0.00,,,0.00,0,Wunderground v.1.15,2013-09-28 01:40:00,
2013-09-27 20:41:00,74.7,51.3,29.79,SE,142,13.0,15.0,44,0.00,,,0.00,0,Wunderground v.1.15,2013-09-28 01:41:00,
2013-09-27 20:45:00,74.7,51.9,29.79,SE,133,6.0,15.0,45,0.00,,,0.00,0,Wunderground v.1.15,2013-09-28 01:45:00,
2013-09-27 20:46:00,74.6,51.9,29.79,SE,141,14.0,15.0,45,0.00,,,0.00,0,Wunderground v.1.15,2013-09-28 01:46:00,
2013-09-27 20:48:00,74.6,51.2,29.79,SSE,150,3.0,15.0,44,0.00,,,0.00,0,Wunderground v.1.15,2013-09-28 01:48:00,
2013-09-27 20:51:00,74.5,51.8,29.78,SE,137,9.0,15.0,45,0.00,,,0.00,0,Wunderground v.1.15,2013-09-28 01:51:00,
2013-09-27 20:52:00,74.4,51.7,29.79,SSE,147,3.0,15.0,45,0.00,,,0.00,0,Wunderground v.1.15,2013-09-28 01:52:00,
2013-09-27 20:54:00,74.4,51.7,29.79,SE,137,9.0,15.0,45,0.00,,,0.00,0,Wunderground v.1.15,2013-09-28 01:54:00,
2013-09-27 20:58:00,74.3,51.6,29.79,ESE,119,6.0,15.0,45,0.00,,,0.00,0,Wunderground v.1.15,2013-09-28 01:58:00,
2013-09-27 21:00:00,74.3,51.6,29.79,SE,142,9.0,15.0,45,0.00,,,0.00,0,Wunderground v.1.15,2013-09-28 02:00:00,
2013-09-27 21:01:00,74.2,51.5,29.79,SE,143,6.0,15.0,45,0.00,,,0.00,0,Wunderground v.1.15,2013-09-28 02:01:00,
2013-09-27 21:03:00,74.2,51.5,29.79,SSE,164,9.0,15.0,45,0.00,,,0.00,0,Wunderground v.1.15,2013-09-28 02:03:00,
2013-09-27 21:04:00,74.2,51.5,29.79,SSE,152,9.0,15.0,45,0.00,,,0.00,0,Wunderground v.1.15,2013-09-28 02:04:00,
2013-09-27 21:08:00,74.1,51.4,29.79,SSE,156,9.0,15.0,45,0.00,,,0.00,0,Wunderground v.1.15,2013-09-28 02:08:00,
2013-09-27 21:09:00,74.1,51.4,29.79,SE,143,8.0,15.0,45,0.00,,,0.00,0,Wunderground v.1.15,2013-09-28 02:09:00,
2013-09-27 21:11:00,74.1,51.4,29.79,SE,141,18.0,18.0,45,0.00,,,0.00,0,Wunderground v.1.15,2013-09-28 02:11:00,
2013-09-27 21:13:00,74.0,51.3,29.79,SE,144,14.0,18.0,45,0.00,,,0.00,0,Wunderground v.1.15,2013-09-28 02:13:00,
2013-09-27 21:14:00,74.0,51.3,29.79,SE,132,14.0,18.0,45,0.00,,,0.00,0,Wunderground v.1.15,2013-09-28 02:14:00,
2013-09-27 21:15:00,74.0,51.3,29.79,ESE,120,11.0,18.0,45,0.00,,,0.00,0,Wunderground v.1.15,2013-09-28 02:15:00,
2013-09-27 21:17:00,74.1,51.4,29.79,ESE,118,4.0,18.0,45,0.00,,,0.00,0,Wunderground v.1.15,2013-09-28 02:17:00,
2013-09-27 21:19:00,74.0,51.3,29.79,SE,144,9.0,18.0,45,0.00,,,0.00,0,Wunderground v.1.15,2013-09-28 02:19:00,
2013-09-27 21:20:00,74.0,51.3,29.80,SSE,147,10.0,15.0,45,0.00,,,0.00,0,Wunderground v.1.15,2013-09-28 02:20:00,
2013-09-27 21:21:00,74.0,51.3,29.80,SSE,156,5.0,15.0,45,0.00,,,0.00,0,Wunderground v.1.15,2013-09-28 02:21:00,
2013-09-27 21:25:00,73.8,51.1,29.80,SSE,148,8.0,15.0,45,0.00,,,0.00,0,Wunderground v.1.15,2013-09-28 02:25:00,
2013-09-27 21:27:00,73.8,51.1,29.80,SSE,149,8.0,15.0,45,0.00,,,0.00,0,Wunderground v.1.15,2013-09-28 02:27:00,
2013-09-27 21:29:00,73.8,51.1,29.80,SSE,147,9.0,15.0,45,0.00,,,0.00,0,Wunderground v.1.15,2013-09-28 02:29:00,
2013-09-27 21:30:00,73.8,51.1,29.80,SE,134,10.0,15.0,45,0.00,,,0.00,0,Wunderground v.1.15,2013-09-28 02:30:00,
2013-09-27 21:31:00,73.8,51.1,29.80,SE,145,8.0,15.0,45,0.00,,,0.00,0,Wunderground v.1.15,2013-09-28 02:31:00,
2013-09-27 21:35:00,73.7,51.0,29.80,SSE,156,5.0,15.0,45,0.00,,,0.00,0,Wunderground v.1.15,2013-09-28 02:35:00,
2013-09-27 21:40:00,73.4,50.8,29.80,SE,126,6.0,15.0,45,0.00,,,0.00,0,Wunderground v.1.15,2013-09-28 02:40:00,
2013-09-27 21:41:00,73.4,50.8,29.80,SE,144,4.0,15.0,45,0.00,,,0.00,0,Wunderground v.1.15,2013-09-28 02:41:00,
2013-09-27 21:43:00,73.3,50.7,29.80,East,99,3.0,15.0,45,0.00,,,0.00,0,Wunderground v.1.15,2013-09-28 02:43:00,
2013-09-27 21:46:00,73.3,50.7,29.80,SE,133,6.0,15.0,45,0.00,,,0.00,0,Wunderground v.1.15,2013-09-28 02:46:00,
2013-09-27 21:48:00,73.2,50.6,29.80,SE,144,9.0,15.0,45,0.00,,,0.00,0,Wunderground v.1.15,2013-09-28 02:48:00,
2013-09-27 21:49:00,73.2,51.2,29.80,SSE,148,11.0,15.0,46,0.00,,,0.00,0,Wunderground v.1.15,2013-09-28 02:49:00,
2013-09-27 21:50:00,73.2,50.6,29.80,SE,132,4.0,15.0,45,0.00,,,0.00,0,Wunderground v.1.15,2013-09-28 02:50:00,
2013-09-27 21:51:00,73.2,50.6,29.79,SSE,149,13.0,15.0,45,0.00,,,0.00,0,Wunderground v.1.15,2013-09-28 02:51:00,
2013-09-27 21:54:00,73.1,51.1,29.79,SE,146,9.0,15.0,46,0.00,,,0.00,0,Wunderground v.1.15,2013-09-28 02:54:00,
2013-09-27 21:59:00,73.0,50.4,29.80,SE,145,10.0,15.0,45,0.00,,,0.00,0,Wunderground v.1.15,2013-09-28 02:59:00,
2013-09-27 22:00:00,73.0,50.4,29.80,SSE,149,5.0,15.0,45,0.00,,,0.00,0,Wunderground v.1.15,2013-09-28 03:00:00,
2013-09-27 22:01:00,73.0,50.4,29.80,ESE,119,2.0,15.0,45,0.00,,,0.00,0,Wunderground v.1.15,2013-09-28 03:01:00,
2013-09-27 22:06:00,72.9,50.3,29.79,SSE,165,6.0,15.0,45,0.00,,,0.00,0,Wunderground v.1.15,2013-09-28 03:06:00,
2013-09-27 22:07:00,72.8,50.2,29.79,SSE,149,4.0,15.0,45,0.00,,,0.00,0,Wunderground v.1.15,2013-09-28 03:07:00,
2013-09-27 22:08:00,72.8,50.8,29.79,SE,143,8.0,15.0,46,0.00,,,0.00,0,Wunderground v.1.15,2013-09-28 03:08:00,
2013-09-27 22:09:00,72.8,50.8,29.79,SE,144,5.0,15.0,46,0.00,,,0.00,0,Wunderground v.1.15,2013-09-28 03:09:00,
2013-09-27 22:12:00,72.8,50.8,29.79,SE,126,2.0,15.0,46,0.00,,,0.00,0,Wunderground v.1.15,2013-09-28 03:12:00,
2013-09-27 22:13:00,72.8,50.8,29.80,SSE,160,4.0,15.0,46,0.00,,,0.00,0,Wunderground v.1.15,2013-09-28 03:13:00,
2013-09-27 22:14:00,72.8,50.2,29.80,SSE,148,6.0,15.0,45,0.00,,,0.00,0,Wunderground v.1.15,2013-09-28 03:14:00,
2013-09-27 22:15:00,72.8,50.8,29.80,SE,138,6.0,15.0,46,0.00,,,0.00,0,Wunderground v.1.15,2013-09-28 03:15:00,
2013-09-27 22:17:00,72.7,50.7,29.79,East,80,8.0,15.0,46,0.00,,,0.00,0,Wunderground v.1.15,2013-09-28 03:17:00,
2013-09-27 22:19:00,72.7,50.7,29.79,SE,145,5.0,15.0,46,0.00,,,0.00,0,Wunderground v.1.15,2013-09-28 03:19:00,
2013-09-27 22:20:00,72.7,50.7,29.79,SE,145,5.0,15.0,46,0.00,,,0.00,0,Wunderground v.1.15,2013-09-28 03:20:00,
2013-09-27 22:21:00,72.6,50.6,29.79,SE,133,7.0,15.0,46,0.00,,,0.00,0,Wunderground v.1.15,2013-09-28 03:21:00,
2013-09-27 22:23:00,72.6,50.6,29.79,SE,138,6.0,15.0,46,0.00,,,0.00,0,Wunderground v.1.15,2013-09-28 03:23:00,
2013-09-27 22:24:00,72.6,50.6,29.80,SSE,154,6.0,15.0,46,0.00,,,0.00,0,Wunderground v.1.15,2013-09-28 03:24:00,
2013-09-27 22:29:00,72.5,50.5,29.79,SE,141,4.0,15.0,46,0.00,,,0.00,0,Wunderground v.1.15,2013-09-28 03:29:00,
2013-09-27 22:30:00,72.4,50.4,29.79,SSE,151,7.0,15.0,46,0.00,,,0.00,0,Wunderground v.1.15,2013-09-28 03:30:00,
2013-09-27 22:31:00,72.4,50.4,29.79,SSE,163,7.0,15.0,46,0.00,,,0.00,0,Wunderground v.1.15,2013-09-28 03:31:00,
2013-09-27 22:34:00,72.3,50.4,29.80,SE,138,6.0,15.0,46,0.00,,,0.00,0,Wunderground v.1.15,2013-09-28 03:34:00,
2013-09-27 22:37:00,72.2,50.3,29.80,ESE,119,7.0,15.0,46,0.00,,,0.00,0,Wunderground v.1.15,2013-09-28 03:37:00,
2013-09-27 22:38:00,72.2,50.3,29.80,SE,144,9.0,15.0,46,0.00,,,0.00,0,Wunderground v.1.15,2013-09-28 03:38:00,
2013-09-27 22:39:00,72.2,50.8,29.80,South,174,11.0,15.0,47,0.00,,,0.00,0,Wunderground v.1.15,2013-09-28 03:39:00,
2013-09-27 22:40:00,72.1,50.2,29.80,ESE,121,5.0,15.0,46,0.00,,,0.00,0,Wunderground v.1.15,2013-09-28 03:40:00,
2013-09-27 22:43:00,72.0,50.7,29.80,SE,136,11.0,15.0,47,0.00,,,0.00,0,Wunderground v.1.15,2013-09-28 03:43:00,
2013-09-27 22:44:00,71.9,50.6,29.80,SE,142,6.0,15.0,47,0.00,,,0.00,0,Wunderground v.1.15,2013-09-28 03:44:00,
2013-09-27 22:45:00,71.9,50.6,29.80,ESE,113,5.0,15.0,47,0.00,,,0.00,0,Wunderground v.1.15,2013-09-28 03:45:00,
2013-09-27 22:47:00,71.9,50.6,29.80,SE,130,5.0,15.0,47,0.00,,,0.00,0,Wunderground v.1.15,2013-09-28 03:47:00,
2013-09-27 22:49:00,71.9,50.6,29.80,SSE,167,6.0,15.0,47,0.00,,,0.00,0,Wunderground v.1.15,2013-09-28 03:49:00,
2013-09-27 22:51:00,71.8,50.5,29.80,SSE,161,3.0,15.0,47,0.00,,,0.00,0,Wunderground v.1.15,2013-09-28 03:51:00,
2013-09-27 22:52:00,71.8,50.5,29.80,SSE,151,10.0,15.0,47,0.00,,,0.00,0,Wunderground v.1.15,2013-09-28 03:52:00,
2013-09-27 22:53:00,71.8,50.5,29.80,SE,133,8.0,15.0,47,0.00,,,0.00,0,Wunderground v.1.15,2013-09-28 03:53:00,
2013-09-27 22:55:00,71.7,50.4,29.80,SSE,149,10.0,15.0,47,0.00,,,0.00,0,Wunderground v.1.15,2013-09-28 03:55:00,
2013-09-27 22:57:00,71.6,50.3,29.80,ESE,114,6.0,15.0,47,0.00,,,0.00,0,Wunderground v.1.15,2013-09-28 03:57:00,
2013-09-27 22:58:00,71.6,50.9,29.80,SE,136,3.0,15.0,48,0.00,,,0.00,0,Wunderground v.1.15,2013-09-28 03:58:00,
2013-09-27 23:00:00,71.5,50.8,29.80,SE,134,6.0,15.0,48,0.00,,,0.00,0,Wunderground v.1.15,2013-09-28 04:00:00,
2013-09-27 23:01:00,71.4,50.7,29.79,SSE,155,5.0,15.0,48,0.00,,,0.00,0,Wunderground v.1.15,2013-09-28 04:01:00,
2013-09-27 23:02:00,71.4,50.7,29.79,SE,127,8.0,15.0,48,0.00,,,0.00,0,Wunderground v.1.15,2013-09-28 04:02:00,
2013-09-27 23:03:00,71.3,50.6,29.80,SE,126,7.0,15.0,48,0.00,,,0.00,0,Wunderground v.1.15,2013-09-28 04:03:00,
2013-09-27 23:06:00,71.2,50.5,29.79,SE,136,8.0,15.0,48,0.00,,,0.00,0,Wunderground v.1.15,2013-09-28 04:06:00,
2013-09-27 23:07:00,71.2,50.5,29.79,SSE,148,5.0,15.0,48,0.00,,,0.00,0,Wunderground v.1.15,2013-09-28 04:07:00,
2013-09-27 23:08:00,71.1,50.4,29.79,SE,136,4.0,15.0,48,0.00,,,0.00,0,Wunderground v.1.15,2013-09-28 04:08:00,
2013-09-27 23:10:00,71.0,50.3,29.79,SE,134,10.0,15.0,48,0.00,,,0.00,0,Wunderground v.1.15,2013-09-28 04:10:00,
2013-09-27 23:11:00,71.0,50.3,29.80,South,173,9.0,15.0,48,0.00,,,0.00,0,Wunderground v.1.15,2013-09-28 04:11:00,
2013-09-27 23:13:00,70.9,50.8,29.79,SE,144,12.0,15.0,49,0.00,,,0.00,0,Wunderground v.1.15,2013-09-28 04:13:00,
2013-09-27 23:16:00,70.8,50.7,29.79,SE,141,9.0,15.0,49,0.00,,,0.00,0,Wunderground v.1.15,2013-09-28 04:16:00,
2013-09-27 23:17:00,70.7,50.6,29.79,SE,135,7.0,15.0,49,0.00,,,0.00,0,Wunderground v.1.15,2013-09-28 04:17:00,
2013-09-27 23:18:00,70.7,50.6,29.79,SSE,152,9.0,15.0,49,0.00,,,0.00,0,Wunderground v.1.15,2013-09-28 04:18:00,
2013-09-27 23:20:00,70.6,50.5,29.79,SE,131,4.0,15.0,49,0.00,,,0.00,0,Wunderground v.1.15,2013-09-28 04:20:00,
2013-09-27 23:26:00,70.4,50.9,29.78,SE,146,2.0,15.0,50,0.00,,,0.00,0,Wunderground v.1.15,2013-09-28 04:26:00,
2013-09-27 23:27:00,70.3,50.8,29.79,SE,128,7.0,15.0,50,0.00,,,0.00,0,Wunderground v.1.15,2013-09-28 04:27:00,
2013-09-27 23:28:00,70.2,50.7,29.79,SE,145,6.0,15.0,50,0.00,,,0.00,0,Wunderground v.1.15,2013-09-28 04:28:00,
2013-09-27 23:31:00,70.2,50.7,29.78,SSE,161,6.0,15.0,50,0.00,,,0.00,0,Wunderground v.1.15,2013-09-28 04:31:00,
2013-09-27 23:32:00,70.1,51.1,29.79,SE,141,6.0,15.0,51,0.00,,,0.00,0,Wunderground v.1.15,2013-09-28 04:32:00,
2013-09-27 23:34:00,70.1,51.1,29.79,SSE,163,6.0,15.0,51,0.00,,,0.00,0,Wunderground v.1.15,2013-09-28 04:34:00,
2013-09-27 23:37:00,70.0,51.0,29.78,SE,146,7.0,15.0,51,0.00,,,0.00,0,Wunderground v.1.15,2013-09-28 04:37:00,
2013-09-27 23:38:00,70.0,51.0,29.78,ESE,114,4.0,15.0,51,0.00,,,0.00,0,Wunderground v.1.15,2013-09-28 04:38:00,
2013-09-27 23:40:00,70.0,51.0,29.78,ESE,114,5.0,15.0,51,0.00,,,0.00,0,Wunderground v.1.15,2013-09-28 04:40:00,
2013-09-27 23:43:00,69.9,50.9,29.78,SSE,147,7.0,15.0,51,0.00,,,0.00,0,Wunderground v.1.15,2013-09-28 04:43:00,
2013-09-27 23:44:00,69.9,50.9,29.78,SE,132,3.0,15.0,51,0.00,,,0.00,0,Wunderground v.1.15,2013-09-28 04:44:00,
2013-09-27 23:45:00,69.9,50.9,29.78,SE,143,7.0,15.0,51,0.00,,,0.00,0,Wunderground v.1.15,2013-09-28 04:45:00,
2013-09-27 23:46:00,69.8,50.9,29.78,SE,141,4.0,15.0,51,0.00,,,0.00,0,Wunderground v.1.15,2013-09-28 04:46:00,
2013-09-27 23:49:00,69.7,50.8,29.78,SSE,162,6.0,15.0,51,0.00,,,0.00,0,Wunderground v.1.15,2013-09-28 04:49:00,
2013-09-27 23:52:00,69.7,50.8,29.79,ESE,113,6.0,15.0,51,0.00,,,0.00,0,Wunderground v.1.15,2013-09-28 04:52:00,
2013-09-27 23:53:00,69.7,50.8,29.78,SE,140,7.0,15.0,51,0.00,,,0.00,0,Wunderground v.1.15,2013-09-28 04:53:00,
2013-09-27 23:55:00,69.6,50.7,29.78,SE,139,9.0,15.0,51,0.00,,,0.00,0,Wunderground v.1.15,2013-09-28 04:55:00,
2013-09-27 23:56:00,69.6,50.7,29.78,South,179,2.0,15.0,51,0.00,,,0.00,0,Wunderground v.1.15,2013-09-28 04:56:00,
2013-09-27 23:57:00,69.6,50.7,29.78,SE,144,6.0,15.0,51,0.00,,,0.00,0,Wunderground v.1.15,2013-09-28 04:57:00,